Time,TemperatureF,DewpointF,PressureIn,WindDirection,WindDirectionDegrees,WindSpeedMPH,WindSpeedGustMPH,Humidity,HourlyPrecipIn,Conditions,Clouds,dailyrainin,SoftwareType,DateUTC
2013-03-15 00:00:00,46.8,46.5,30.09,East,100,0.0,1.0,99,0.01,,,0.08,VWS V14.01,2013-03-15 07:00:00,
2013-03-15 00:01:00,46.8,46.5,30.09,East,100,2.0,2.0,99,0.01,,,0.08,VWS V14.01,2013-03-15 07:01:00,
2013-03-15 00:03:00,46.8,46.5,30.09,East,100,2.0,3.0,99,0.01,,,0.00,VWS V14.01,2013-03-15 07:03:00,
2013-03-15 00:05:00,46.8,46.5,30.09,East,100,2.0,3.0,99,0.01,,,0.00,VWS V14.01,2013-03-15 07:05:00,
2013-03-15 00:06:00,46.8,46.5,30.09,East,100,1.0,3.0,99,0.01,,,0.00,VWS V14.01,2013-03-15 07:06:00,
2013-03-15 00:09:00,46.8,46.5,30.09,East,100,2.0,3.0,99,0.01,,,0.00,VWS V14.01,2013-03-15 07:09:00,
2013-03-15 00:11:00,46.8,46.5,30.09,East,100,0.0,3.0,99,0.01,,,0.00,VWS V14.01,2013-03-15 07:11:00,
2013-03-15 00:13:00,46.8,46.5,30.09,East,100,0.0,1.0,99,0.01,,,0.00,VWS V14.01,2013-03-15 07:13:00,
2013-03-15 00:14:00,46.8,46.5,30.09,East,100,2.0,2.0,99,0.01,,,0.00,VWS V14.01,2013-03-15 07:14:00,
2013-03-15 00:17:00,46.8,46.5,30.09,East,100,0.0,0.0,99,0.01,,,0.00,VWS V14.01,2013-03-15 07:17:00,
2013-03-15 00:18:00,46.8,46.5,30.09,East,100,2.0,2.0,99,0.01,,,0.00,VWS V14.01,2013-03-15 07:18:00,
2013-03-15 00:21:00,46.8,46.5,30.09,East,100,1.0,2.0,99,0.01,,,0.00,VWS V14.01,2013-03-15 07:21:00,
2013-03-15 00:23:00,47.0,46.7,30.09,East,100,2.0,3.0,99,0.01,,,0.00,VWS V14.01,2013-03-15 07:23:00,
2013-03-15 00:24:00,47.0,46.7,30.09,East,100,2.0,3.0,99,0.01,,,0.00,VWS V14.01,2013-03-15 07:24:00,
2013-03-15 00:27:00,47.0,46.7,30.09,East,100,1.0,3.0,99,0.01,,,0.00,VWS V14.01,2013-03-15 07:27:00,
2013-03-15 00:29:00,47.0,46.7,30.09,East,100,0.0,3.0,99,0.01,,,0.00,VWS V14.01,2013-03-15 07:29:00,
2013-03-15 00:31:00,47.0,46.7,30.10,East,100,0.0,0.0,99,0.01,,,0.00,VWS V14.01,2013-03-15 07:31:00,
2013-03-15 00:33:00,47.0,46.7,30.10,East,100,1.0,1.0,99,0.01,,,0.00,VWS V14.01,2013-03-15 07:33:00,
2013-03-15 00:37:00,47.0,47.0,30.10,East,100,2.0,3.0,100,0.01,,,0.00,VWS V14.01,2013-03-15 07:37:00,
2013-03-15 00:38:00,47.0,47.0,30.10,East,100,2.0,3.0,100,0.01,,,0.00,VWS V14.01,2013-03-15 07:38:00,
2013-03-15 00:42:00,47.1,47.1,30.10,NE,35,1.0,3.0,100,0.00,,,0.00,VWS V14.01,2013-03-15 07:42:00,
2013-03-15 00:43:00,47.1,47.1,30.10,NE,37,0.0,3.0,100,0.00,,,0.00,VWS V14.01,2013-03-15 07:43:00,
2013-03-15 00:45:00,47.1,47.1,30.10,NE,37,0.0,3.0,100,0.00,,,0.00,VWS V14.01,2013-03-15 07:45:00,
2013-03-15 00:46:00,47.1,47.1,30.10,NE,37,0.0,1.0,100,0.00,,,0.00,VWS V14.01,2013-03-15 07:46:00,
2013-03-15 00:50:00,47.1,47.1,30.10,NE,35,3.0,5.0,100,0.00,,,0.00,VWS V14.01,2013-03-15 07:50:00,
2013-03-15 00:52:00,47.3,47.3,30.10,NE,45,0.0,2.0,100,0.00,,,0.00,VWS V14.01,2013-03-15 07:52:00,
2013-03-15 00:54:00,47.3,47.3,30.10,ENE,71,2.0,5.0,100,0.00,,,0.00,VWS V14.01,2013-03-15 07:54:00,
2013-03-15 00:55:00,47.3,47.3,30.10,ENE,71,0.0,5.0,100,0.00,,,0.00,VWS V14.01,2013-03-15 07:55:00,
2013-03-15 00:57:00,47.3,47.3,30.10,NE,49,0.0,2.0,100,0.00,,,0.00,VWS V14.01,2013-03-15 07:57:00,
2013-03-15 01:00:00,47.4,47.4,30.10,East,96,4.0,5.0,100,0.00,,,0.00,VWS V14.01,2013-03-15 08:00:00,
2013-03-15 01:01:00,47.4,47.4,30.10,East,88,1.0,5.0,100,0.00,,,0.00,VWS V14.01,2013-03-15 08:01:00,
2013-03-15 01:04:00,47.4,47.4,30.10,ENE,71,1.0,3.0,100,0.00,,,0.00,VWS V14.01,2013-03-15 08:04:00,
2013-03-15 01:07:00,47.6,47.6,30.10,East,80,0.0,3.0,100,0.00,,,0.00,VWS V14.01,2013-03-15 08:07:00,
2013-03-15 01:12:00,47.6,47.6,30.10,ENE,66,0.0,1.0,100,0.00,,,0.00,VWS V14.01,2013-03-15 08:12:00,
2013-03-15 01:16:00,47.6,47.6,30.10,ENE,78,0.0,3.0,100,0.00,,,0.00,VWS V14.01,2013-03-15 08:16:00,
2013-03-15 01:17:00,47.6,47.6,30.10,East,82,3.0,3.0,100,0.00,,,0.00,VWS V14.01,2013-03-15 08:17:00,
2013-03-15 01:21:00,47.6,47.6,30.10,East,93,3.0,3.0,100,0.00,,,0.00,VWS V14.01,2013-03-15 08:21:00,
2013-03-15 01:22:00,47.6,47.6,30.10,ESE,121,2.0,6.0,100,0.00,,,0.00,VWS V14.01,2013-03-15 08:22:00,
2013-03-15 01:23:00,47.6,47.6,30.10,NE,51,5.0,6.0,100,0.00,,,0.00,VWS V14.01,2013-03-15 08:23:00,
2013-03-15 01:25:00,47.7,47.7,30.10,ENE,58,2.0,6.0,100,0.00,,,0.00,VWS V14.01,2013-03-15 08:25:00,
2013-03-15 01:27:00,47.7,47.7,30.10,NE,40,2.0,3.0,100,0.00,,,0.00,VWS V14.01,2013-03-15 08:27:00,
2013-03-15 01:28:00,47.7,47.7,30.10,NE,40,0.0,3.0,100,0.00,,,0.00,VWS V14.01,2013-03-15 08:28:00,
2013-03-15 01:31:00,47.7,47.7,30.10,ENE,68,1.0,1.0,100,0.00,,,0.00,VWS V14.01,2013-03-15 08:31:00,
2013-03-15 01:33:00,47.7,47.7,30.10,NE,47,1.0,3.0,100,0.00,,,0.00,VWS V14.01,2013-03-15 08:33:00,
2013-03-15 01:34:00,47.7,47.7,30.10,NE,47,2.0,3.0,100,0.00,,,0.00,VWS V14.01,2013-03-15 08:34:00,
2013-03-15 01:38:00,47.7,47.7,30.10,ENE,76,3.0,3.0,100,0.00,,,0.00,VWS V14.01,2013-03-15 08:38:00,
2013-03-15 01:39:00,47.7,47.7,30.10,East,82,1.0,3.0,100,0.00,,,0.00,VWS V14.01,2013-03-15 08:39:00,
2013-03-15 01:41:00,47.7,47.7,30.10,East,82,2.0,3.0,100,0.00,,,0.00,VWS V14.01,2013-03-15 08:41:00,
2013-03-15 01:45:00,47.7,47.7,30.10,NNE,21,2.0,4.0,100,0.00,,,0.00,VWS V14.01,2013-03-15 08:45:00,
2013-03-15 01:46:00,47.7,47.7,30.09,NNE,21,0.0,4.0,100,0.00,,,0.00,VWS V14.01,2013-03-15 08:46:00,
2013-03-15 01:47:00,47.7,47.7,30.09,East,80,0.0,0.0,100,0.00,,,0.00,VWS V14.01,2013-03-15 08:47:00,
2013-03-15 01:50:00,47.7,47.7,30.09,East,80,0.0,0.0,100,0.00,,,0.00,VWS V14.01,2013-03-15 08:50:00,
2013-03-15 01:51:00,47.7,47.7,30.09,East,80,0.0,0.0,100,0.00,,,0.00,VWS V14.01,2013-03-15 08:51:00,
2013-03-15 01:53:00,47.9,47.9,30.09,East,80,2.0,2.0,100,0.00,,,0.00,VWS V14.01,2013-03-15 08:53:00,
2013-03-15 01:55:00,47.9,47.9,30.09,SE,137,3.0,3.0,100,0.00,,,0.00,VWS V14.01,2013-03-15 08:55:00,
2013-03-15 01:59:00,47.9,47.9,30.09,SE,137,1.0,1.0,100,0.00,,,0.00,VWS V14.01,2013-03-15 08:59:00,
2013-03-15 02:00:00,47.9,47.9,30.09,SE,137,1.0,1.0,100,0.00,,,0.00,VWS V14.01,2013-03-15 09:00:00,
2013-03-15 02:01:00,47.9,47.9,30.10,SE,137,1.0,1.0,100,0.00,,OVC090,0.00,VWS V14.01,2013-03-15 09:01:00,
2013-03-15 02:02:00,47.9,47.9,30.10,SE,137,1.0,1.0,100,0.00,,OVC090,0.00,VWS V14.01,2013-03-15 09:02:00,
2013-03-15 02:06:00,47.9,47.9,30.10,SE,137,1.0,1.0,100,0.00,,OVC090,0.00,VWS V14.01,2013-03-15 09:06:00,
2013-03-15 02:07:00,47.9,47.9,30.10,SE,137,1.0,1.0,100,0.00,,OVC090,0.00,VWS V14.01,2013-03-15 09:07:00,
2013-03-15 02:08:00,47.9,47.9,30.10,SE,137,1.0,1.0,100,0.00,,OVC090,0.00,VWS V14.01,2013-03-15 09:08:00,
2013-03-15 02:12:00,47.9,47.9,30.10,SE,137,1.0,1.0,100,0.00,,OVC090,0.00,VWS V14.01,2013-03-15 09:12:00,
2013-03-15 02:13:00,47.9,47.9,30.10,SE,137,1.0,1.0,100,0.00,,OVC090,0.00,VWS V14.01,2013-03-15 09:13:00,
2013-03-15 02:14:00,47.9,47.9,30.10,SE,137,1.0,1.0,100,0.00,,OVC090,0.00,VWS V14.01,2013-03-15 09:14:00,
2013-03-15 02:16:00,47.9,47.9,30.09,SE,137,1.0,1.0,100,0.00,,OVC090,0.00,VWS V14.01,2013-03-15 09:16:00,
2013-03-15 02:18:00,47.9,47.9,30.09,SE,137,1.0,1.0,100,0.00,,OVC090,0.00,VWS V14.01,2013-03-15 09:18:00,
2013-03-15 02:21:00,47.9,47.9,30.09,SE,137,1.0,1.0,100,0.00,,OVC090,0.00,VWS V14.01,2013-03-15 09:21:00,
2013-03-15 02:22:00,47.9,47.9,30.09,SE,137,1.0,1.0,100,0.00,,OVC090,0.00,VWS V14.01,2013-03-15 09:22:00,
2013-03-15 02:26:00,47.9,47.9,30.09,SE,137,1.0,1.0,100,0.00,,OVC090,0.00,VWS V14.01,2013-03-15 09:26:00,
2013-03-15 02:27:00,47.9,47.9,30.09,SE,137,1.0,1.0,100,0.00,,OVC090,0.00,VWS V14.01,2013-03-15 09:27:00,
2013-03-15 02:31:00,47.9,47.9,30.10,SE,137,1.0,1.0,100,0.00,,OVC090,0.00,VWS V14.01,2013-03-15 09:31:00,
2013-03-15 02:32:00,47.9,47.9,30.10,SE,137,1.0,1.0,100,0.00,,OVC090,0.00,VWS V14.01,2013-03-15 09:32:00,
2013-03-15 02:35:00,47.9,47.9,30.10,SE,137,1.0,1.0,100,0.00,,OVC090,0.00,VWS V14.01,2013-03-15 09:35:00,
2013-03-15 02:36:00,47.9,47.9,30.10,SE,137,1.0,1.0,100,0.00,,OVC090,0.00,VWS V14.01,2013-03-15 09:36:00,
2013-03-15 02:37:00,47.9,47.9,30.10,SE,137,1.0,1.0,100,0.00,,OVC090,0.00,VWS V14.01,2013-03-15 09:37:00,
2013-03-15 02:41:00,47.9,47.9,30.10,SE,137,1.0,1.0,100,0.00,,OVC090,0.00,VWS V14.01,2013-03-15 09:41:00,
2013-03-15 02:43:00,47.9,47.9,30.10,SE,137,1.0,1.0,100,0.00,,OVC090,0.00,VWS V14.01,2013-03-15 09:43:00,
2013-03-15 02:44:00,47.9,47.9,30.10,SE,137,1.0,1.0,100,0.00,,OVC090,0.00,VWS V14.01,2013-03-15 09:44:00,
2013-03-15 02:45:00,47.9,47.9,30.10,SE,137,1.0,1.0,100,0.00,,OVC090,0.00,VWS V14.01,2013-03-15 09:45:00,
2013-03-15 02:47:00,47.9,47.9,30.09,SE,137,1.0,1.0,100,0.00,,OVC090,0.00,VWS V14.01,2013-03-15 09:47:00,
2013-03-15 02:51:00,47.9,47.9,30.09,SE,137,1.0,1.0,100,0.00,,OVC090,0.00,VWS V14.01,2013-03-15 09:51:00,
2013-03-15 02:52:00,47.9,47.9,30.09,SE,137,1.0,1.0,100,0.00,,OVC090,0.00,VWS V14.01,2013-03-15 09:52:00,
2013-03-15 02:53:00,47.9,47.9,30.09,SE,137,1.0,1.0,100,0.00,,OVC090,0.00,VWS V14.01,2013-03-15 09:53:00,
2013-03-15 02:54:00,47.9,47.9,30.09,SE,137,1.0,1.0,100,0.00,,OVC090,0.00,VWS V14.01,2013-03-15 09:54:00,
2013-03-15 02:57:00,47.9,47.9,30.09,SE,138,0.0,1.0,100,0.00,,OVC090,0.00,VWS V14.01,2013-03-15 09:57:00,
2013-03-15 02:58:00,47.9,47.9,30.09,SE,138,0.0,1.0,100,0.00,,OVC090,0.00,VWS V14.01,2013-03-15 09:58:00,
2013-03-15 03:01:00,47.9,47.9,30.10,SE,138,1.0,1.0,100,0.00,,BKN090,0.00,VWS V14.01,2013-03-15 10:01:00,
2013-03-15 03:02:00,47.9,47.9,30.10,SE,138,0.0,0.0,100,0.00,,BKN090,0.00,VWS V14.01,2013-03-15 10:02:00,
2013-03-15 03:06:00,47.9,47.9,30.10,ESE,110,2.0,2.0,100,0.00,,BKN090,0.00,VWS V14.01,2013-03-15 10:06:00,
2013-03-15 03:07:00,47.9,47.9,30.10,ESE,110,2.0,2.0,100,0.00,,BKN090,0.00,VWS V14.01,2013-03-15 10:07:00,
2013-03-15 03:08:00,47.9,47.9,30.10,ESE,110,0.0,2.0,100,0.00,,BKN090,0.00,VWS V14.01,2013-03-15 10:08:00,
2013-03-15 03:11:00,47.9,47.9,30.10,SSW,209,2.0,2.0,100,0.00,,BKN090,0.00,VWS V14.01,2013-03-15 10:11:00,
2013-03-15 03:12:00,47.9,47.9,30.10,SSW,209,2.0,2.0,100,0.00,,BKN090,0.00,VWS V14.01,2013-03-15 10:12:00,
2013-03-15 03:14:00,47.9,47.9,30.10,SSW,209,2.0,2.0,100,0.00,,BKN090,0.00,VWS V14.01,2013-03-15 10:14:00,
2013-03-15 03:16:00,47.9,47.9,30.09,SSW,209,0.0,2.0,100,0.00,,BKN090,0.00,VWS V14.01,2013-03-15 10:16:00,
2013-03-15 03:19:00,47.9,47.9,30.09,SSW,209,0.0,0.0,100,0.00,,BKN090,0.00,VWS V14.01,2013-03-15 10:19:00,
2013-03-15 03:20:00,47.9,47.9,30.09,SSW,209,0.0,0.0,100,0.00,,BKN090,0.00,VWS V14.01,2013-03-15 10:20:00,
2013-03-15 03:21:00,47.9,47.9,30.09,SSW,209,0.0,0.0,100,0.00,,BKN090,0.00,VWS V14.01,2013-03-15 10:21:00,
2013-03-15 03:26:00,47.9,47.9,30.09,SSW,209,0.0,0.0,100,0.00,,BKN090,0.00,VWS V14.01,2013-03-15 10:26:00,
2013-03-15 03:27:00,47.9,47.9,30.09,SSW,209,0.0,0.0,100,0.00,,BKN090,0.00,VWS V14.01,2013-03-15 10:27:00,
2013-03-15 03:28:00,47.9,47.9,30.09,SSW,209,0.0,0.0,100,0.00,,BKN090,0.00,VWS V14.01,2013-03-15 10:28:00,
2013-03-15 03:31:00,47.9,47.9,30.09,SSW,209,0.0,0.0,100,0.00,,BKN090,0.00,VWS V14.01,2013-03-15 10:31:00,
2013-03-15 03:32:00,47.9,47.9,30.09,SSW,209,0.0,0.0,100,0.00,,BKN090,0.00,VWS V14.01,2013-03-15 10:32:00,
2013-03-15 03:35:00,47.9,47.9,30.09,SSW,209,0.0,0.0,100,0.00,,BKN090,0.00,VWS V14.01,2013-03-15 10:35:00,
2013-03-15 03:36:00,47.9,47.9,30.09,SSW,209,0.0,0.0,100,0.00,,BKN090,0.00,VWS V14.01,2013-03-15 10:36:00,
2013-03-15 03:37:00,47.9,47.9,30.09,SSW,209,0.0,0.0,100,0.00,,BKN090,0.00,VWS V14.01,2013-03-15 10:37:00,
2013-03-15 03:41:00,47.9,47.9,30.09,SSW,209,0.0,0.0,100,0.00,,BKN090,0.00,VWS V14.01,2013-03-15 10:41:00,
2013-03-15 03:42:00,47.9,47.9,30.09,SSW,209,0.0,0.0,100,0.00,,BKN090,0.00,VWS V14.01,2013-03-15 10:42:00,
2013-03-15 03:46:00,48.5,48.2,30.09,SSW,209,0.0,0.0,99,0.00,,BKN090,0.00,VWS V14.01,2013-03-15 10:46:00,
2013-03-15 03:48:00,48.5,48.2,30.09,SSW,209,2.0,2.0,99,0.00,,BKN090,0.00,VWS V14.01,2013-03-15 10:48:00,
2013-03-15 03:49:00,48.5,48.2,30.09,SSW,209,1.0,2.0,99,0.00,,BKN090,0.00,VWS V14.01,2013-03-15 10:49:00,
2013-03-15 03:51:00,48.5,48.2,30.09,SSW,209,0.0,2.0,99,0.00,,BKN090,0.00,VWS V14.01,2013-03-15 10:51:00,
2013-03-15 03:52:00,48.5,48.2,30.09,SSW,209,0.0,0.0,99,0.00,,BKN090,0.00,VWS V14.01,2013-03-15 10:52:00,
2013-03-15 03:56:00,48.5,48.2,30.09,SSW,209,0.0,0.0,99,0.00,,BKN090,0.00,VWS V14.01,2013-03-15 10:56:00,
2013-03-15 03:57:00,48.5,48.2,30.09,SSW,209,0.0,0.0,99,0.00,,BKN090,0.00,VWS V14.01,2013-03-15 10:57:00,
2013-03-15 04:02:00,48.5,48.2,30.09,SSW,209,0.0,0.0,99,0.00,,OVC090,0.00,VWS V14.01,2013-03-15 11:02:00,
2013-03-15 04:04:00,48.5,48.2,30.09,SSW,209,0.0,0.0,99,0.00,,OVC090,0.00,VWS V14.01,2013-03-15 11:04:00,
2013-03-15 04:08:00,48.5,48.2,30.09,SSW,209,0.0,0.0,99,0.00,,OVC090,0.00,VWS V14.01,2013-03-15 11:08:00,
2013-03-15 04:09:00,48.5,48.2,30.09,SSW,209,0.0,0.0,99,0.00,,OVC090,0.00,VWS V14.01,2013-03-15 11:09:00,
2013-03-15 04:10:00,48.5,48.2,30.09,SSW,209,0.0,1.0,99,0.00,,OVC090,0.00,VWS V14.01,2013-03-15 11:10:00,
2013-03-15 04:11:00,48.5,48.2,30.09,SSW,209,0.0,1.0,99,0.00,,OVC090,0.00,VWS V14.01,2013-03-15 11:11:00,
2013-03-15 04:16:00,48.5,48.2,30.09,SSW,209,0.0,0.0,99,0.00,,OVC090,0.00,VWS V14.01,2013-03-15 11:16:00,
2013-03-15 04:18:00,48.5,48.2,30.09,SSW,209,0.0,0.0,99,0.00,,OVC090,0.00,VWS V14.01,2013-03-15 11:18:00,
2013-03-15 04:21:00,48.5,48.2,30.09,SSW,209,0.0,0.0,99,0.00,,OVC090,0.00,VWS V14.01,2013-03-15 11:21:00,
2013-03-15 04:26:00,48.5,48.2,30.09,SSW,209,0.0,0.0,99,0.00,,OVC090,0.00,VWS V14.01,2013-03-15 11:26:00,
2013-03-15 04:28:00,48.5,48.2,30.09,SSW,209,0.0,0.0,99,0.00,,OVC090,0.00,VWS V14.01,2013-03-15 11:28:00,
2013-03-15 04:30:00,48.5,48.2,30.09,SSW,209,0.0,0.0,99,0.00,,OVC090,0.00,VWS V14.01,2013-03-15 11:30:00,
2013-03-15 04:33:00,48.5,48.2,30.09,SSW,209,2.0,2.0,99,0.00,,OVC090,0.00,VWS V14.01,2013-03-15 11:33:00,
2013-03-15 04:35:00,48.5,48.2,30.09,ESE,104,1.0,2.0,99,0.00,,OVC090,0.00,VWS V14.01,2013-03-15 11:35:00,
2013-03-15 04:38:00,48.5,48.2,30.09,ESE,104,0.0,0.0,99,0.00,,OVC090,0.00,VWS V14.01,2013-03-15 11:38:00,
2013-03-15 04:40:00,48.3,48.0,30.09,ESE,104,1.0,1.0,99,0.00,,OVC090,0.00,VWS V14.01,2013-03-15 11:40:00,
2013-03-15 04:41:00,48.3,48.0,30.09,ESE,104,1.0,1.0,99,0.00,,OVC090,0.00,VWS V14.01,2013-03-15 11:41:00,
2013-03-15 04:46:00,48.3,48.0,30.08,ESE,104,1.0,3.0,99,0.00,,OVC090,0.00,VWS V14.01,2013-03-15 11:46:00,
2013-03-15 04:50:00,48.3,48.0,30.08,NE,52,1.0,3.0,99,0.00,,OVC090,0.00,VWS V14.01,2013-03-15 11:50:00,
2013-03-15 04:51:00,48.3,48.0,30.08,NE,52,1.0,3.0,99,0.00,,OVC090,0.00,VWS V14.01,2013-03-15 11:51:00,
2013-03-15 04:53:00,48.3,48.0,30.08,NE,52,0.0,1.0,99,0.00,,OVC090,0.00,VWS V14.01,2013-03-15 11:53:00,
2013-03-15 04:56:00,48.3,48.0,30.08,NE,52,0.0,1.0,99,0.00,,OVC090,0.00,VWS V14.01,2013-03-15 11:56:00,
2013-03-15 04:57:00,48.3,48.0,30.08,NE,52,0.0,0.0,99,0.00,,OVC090,0.00,VWS V14.01,2013-03-15 11:57:00,
2013-03-15 05:00:00,48.3,48.0,30.08,NE,52,0.0,0.0,99,0.00,,OVC090,0.00,VWS V14.01,2013-03-15 12:00:00,
2013-03-15 05:01:00,48.3,48.0,30.08,NE,52,0.0,0.0,99,0.00,,OVC090,0.00,VWS V14.01,2013-03-15 12:01:00,
2013-03-15 05:02:00,48.3,48.0,30.08,NE,52,0.0,0.0,99,0.00,,OVC090,0.00,VWS V14.01,2013-03-15 12:02:00,
2013-03-15 05:05:00,48.3,48.0,30.08,NE,52,0.0,0.0,99,0.00,,OVC090,0.00,VWS V14.01,2013-03-15 12:05:00,
2013-03-15 05:06:00,48.3,48.0,30.08,NE,52,0.0,0.0,99,0.00,,OVC090,0.00,VWS V14.01,2013-03-15 12:06:00,
2013-03-15 05:07:00,48.3,48.0,30.08,NE,52,0.0,0.0,99,0.00,,OVC090,0.00,VWS V14.01,2013-03-15 12:07:00,
2013-03-15 05:09:00,48.3,48.0,30.08,NE,52,1.0,3.0,99,0.00,,OVC090,0.00,VWS V14.01,2013-03-15 12:09:00,
2013-03-15 05:11:00,48.3,48.0,30.08,NE,52,0.0,3.0,99,0.00,,OVC090,0.00,VWS V14.01,2013-03-15 12:11:00,
2013-03-15 05:12:00,48.3,48.0,30.08,NE,52,1.0,2.0,99,0.00,,OVC090,0.00,VWS V14.01,2013-03-15 12:12:00,
2013-03-15 05:14:00,48.3,48.0,30.08,NE,52,1.0,2.0,99,0.00,,OVC090,0.00,VWS V14.01,2013-03-15 12:14:00,
2013-03-15 05:18:00,48.5,48.2,30.08,NE,52,0.0,0.0,99,0.00,,OVC090,0.00,VWS V14.01,2013-03-15 12:18:00,
2013-03-15 05:19:00,48.5,48.2,30.08,NE,52,0.0,0.0,99,0.00,,OVC090,0.00,VWS V14.01,2013-03-15 12:19:00,
2013-03-15 05:21:00,48.3,48.0,30.08,NE,52,0.0,0.0,99,0.00,,OVC090,0.00,VWS V14.01,2013-03-15 12:21:00,
2013-03-15 05:24:00,48.3,48.0,30.08,NE,52,0.0,1.0,99,0.00,,OVC090,0.00,VWS V14.01,2013-03-15 12:24:00,
2013-03-15 05:25:00,48.3,48.0,30.08,NE,52,0.0,1.0,99,0.00,,OVC090,0.00,VWS V14.01,2013-03-15 12:25:00,
2013-03-15 05:27:00,48.5,48.2,30.08,NE,52,0.0,0.0,99,0.00,,OVC090,0.00,VWS V14.01,2013-03-15 12:27:00,
2013-03-15 05:31:00,48.3,48.0,30.09,NE,52,0.0,1.0,99,0.00,,OVC090,0.00,VWS V14.01,2013-03-15 12:31:00,
2013-03-15 05:32:00,48.3,48.0,30.09,NE,52,0.0,0.0,99,0.00,,OVC090,0.00,VWS V14.01,2013-03-15 12:32:00,
2013-03-15 05:33:00,48.3,48.0,30.09,NE,52,1.0,2.0,99,0.00,,OVC090,0.00,VWS V14.01,2013-03-15 12:33:00,
2013-03-15 05:36:00,48.3,48.0,30.09,NE,52,0.0,2.0,99,0.00,,OVC090,0.00,VWS V14.01,2013-03-15 12:36:00,
2013-03-15 05:41:00,48.3,48.0,30.09,NE,52,2.0,2.0,99,0.00,,OVC090,0.00,VWS V14.01,2013-03-15 12:41:00,
2013-03-15 05:42:00,48.3,48.0,30.09,NE,52,2.0,2.0,99,0.00,,OVC090,0.00,VWS V14.01,2013-03-15 12:42:00,
2013-03-15 05:45:00,48.3,48.0,30.09,NE,52,0.0,2.0,99,0.00,,OVC090,0.00,VWS V14.01,2013-03-15 12:45:00,
2013-03-15 05:48:00,48.3,48.0,30.09,NE,52,0.0,1.0,99,0.00,,OVC090,0.00,VWS V14.01,2013-03-15 12:48:00,
2013-03-15 05:51:00,48.3,48.0,30.09,NE,52,0.0,2.0,99,0.00,,OVC090,0.00,VWS V14.01,2013-03-15 12:51:00,
2013-03-15 05:53:00,48.3,48.0,30.09,NE,52,0.0,0.0,99,0.00,,OVC090,0.00,VWS V14.01,2013-03-15 12:53:00,
2013-03-15 05:54:00,48.3,48.0,30.09,NE,52,0.0,0.0,99,0.00,,OVC090,0.00,VWS V14.01,2013-03-15 12:54:00,
2013-03-15 05:57:00,48.3,48.0,30.09,NE,52,0.0,0.0,99,0.00,,OVC090,0.00,VWS V14.01,2013-03-15 12:57:00,
2013-03-15 05:59:00,48.3,48.0,30.09,NE,52,0.0,0.0,99,0.00,,OVC090,0.00,VWS V14.01,2013-03-15 12:59:00,
2013-03-15 06:01:00,48.3,48.0,30.10,NE,52,0.0,2.0,99,0.00,,OVC090,0.00,VWS V14.01,2013-03-15 13:01:00,
2013-03-15 06:05:00,48.3,48.0,30.10,NE,52,0.0,3.0,99,0.00,,OVC090,0.00,VWS V14.01,2013-03-15 13:05:00,
2013-03-15 06:07:00,48.3,48.0,30.10,NE,52,0.0,1.0,99,0.00,,OVC090,0.00,VWS V14.01,2013-03-15 13:07:00,
2013-03-15 06:08:00,48.3,48.0,30.10,NE,52,0.0,1.0,99,0.00,,OVC090,0.00,VWS V14.01,2013-03-15 13:08:00,
2013-03-15 06:11:00,48.3,48.0,30.10,NE,52,0.0,3.0,99,0.00,,OVC090,0.00,VWS V14.01,2013-03-15 13:11:00,
2013-03-15 06:12:00,48.3,48.0,30.10,NE,52,0.0,0.0,99,0.00,,OVC090,0.00,VWS V14.01,2013-03-15 13:12:00,
2013-03-15 06:14:00,48.3,48.0,30.10,NE,52,0.0,0.0,99,0.00,,OVC090,0.00,VWS V14.01,2013-03-15 13:14:00,
2013-03-15 06:15:00,48.3,48.0,30.10,NE,52,0.0,0.0,99,0.00,,OVC090,0.00,VWS V14.01,2013-03-15 13:15:00,
2013-03-15 06:16:00,48.3,48.0,30.10,NE,52,1.0,1.0,99,0.00,,OVC090,0.00,VWS V14.01,2013-03-15 13:16:00,
2013-03-15 06:17:00,48.3,48.0,30.10,SSW,213,2.0,5.0,99,0.00,,OVC090,0.00,VWS V14.01,2013-03-15 13:17:00,
2013-03-15 06:21:00,48.3,48.0,30.10,SSW,212,3.0,5.0,99,0.00,,OVC090,0.00,VWS V14.01,2013-03-15 13:21:00,
2013-03-15 06:22:00,48.3,48.0,30.10,SSW,212,0.0,3.0,99,0.00,,OVC090,0.00,VWS V14.01,2013-03-15 13:22:00,
2013-03-15 06:26:00,48.3,48.0,30.10,SW,226,2.0,7.0,99,0.00,,OVC090,0.00,VWS V14.01,2013-03-15 13:26:00,
2013-03-15 06:27:00,48.3,48.0,30.10,SW,226,0.0,2.0,99,0.00,,OVC090,0.00,VWS V14.01,2013-03-15 13:27:00,
2013-03-15 06:31:00,48.3,48.0,30.10,SW,226,2.0,3.0,99,0.00,,OVC090,0.00,VWS V14.01,2013-03-15 13:31:00,
2013-03-15 06:32:00,48.3,48.0,30.10,SW,226,1.0,2.0,99,0.00,,OVC090,0.00,VWS V14.01,2013-03-15 13:32:00,
2013-03-15 06:34:00,48.3,48.0,30.10,SW,226,0.0,2.0,99,0.00,,OVC090,0.00,VWS V14.01,2013-03-15 13:34:00,
2013-03-15 06:36:00,48.3,48.0,30.10,SW,226,0.0,0.0,99,0.00,,OVC090,0.00,VWS V14.01,2013-03-15 13:36:00,
2013-03-15 06:38:00,48.3,48.0,30.10,SW,226,0.0,0.0,99,0.00,,OVC090,0.00,VWS V14.01,2013-03-15 13:38:00,
2013-03-15 06:41:00,48.3,48.0,30.10,SW,226,0.0,0.0,99,0.00,,OVC090,0.00,VWS V14.01,2013-03-15 13:41:00,
2013-03-15 06:43:00,48.3,48.0,30.10,SW,226,0.0,1.0,99,0.00,,OVC090,0.00,VWS V14.01,2013-03-15 13:43:00,
2013-03-15 06:44:00,48.3,48.0,30.10,SW,226,1.0,1.0,99,0.00,,OVC090,0.00,VWS V14.01,2013-03-15 13:44:00,
2013-03-15 06:46:00,48.3,48.0,30.10,SW,226,0.0,0.0,99,0.00,,OVC090,0.00,VWS V14.01,2013-03-15 13:46:00,
2013-03-15 06:48:00,48.3,48.0,30.10,SW,226,0.0,2.0,99,0.00,,OVC090,0.00,VWS V14.01,2013-03-15 13:48:00,
2013-03-15 06:49:00,48.3,48.0,30.10,SW,226,0.0,2.0,99,0.00,,OVC090,0.00,VWS V14.01,2013-03-15 13:49:00,
2013-03-15 06:53:00,48.3,48.0,30.10,SW,226,0.0,0.0,99,0.00,,OVC090,0.00,VWS V14.01,2013-03-15 13:53:00,
2013-03-15 06:55:00,48.3,48.0,30.10,SW,226,0.0,0.0,99,0.00,,OVC090,0.00,VWS V14.01,2013-03-15 13:55:00,
2013-03-15 06:56:00,48.3,48.0,30.10,SW,226,0.0,0.0,99,0.00,,OVC090,0.00,VWS V14.01,2013-03-15 13:56:00,
2013-03-15 07:00:00,48.3,48.0,30.10,SW,226,0.0,0.0,99,0.00,,OVC008,0.00,VWS V14.01,2013-03-15 14:00:00,
2013-03-15 07:01:00,48.3,48.0,30.10,SW,226,0.0,0.0,99,0.00,,OVC008,0.00,VWS V14.01,2013-03-15 14:01:00,
2013-03-15 07:02:00,48.3,48.0,30.10,SW,226,0.0,0.0,99,0.00,,OVC008,0.00,VWS V14.01,2013-03-15 14:02:00,
2013-03-15 07:06:00,48.3,48.0,30.10,SW,226,0.0,0.0,99,0.00,,OVC008,0.00,VWS V14.01,2013-03-15 14:06:00,
2013-03-15 07:08:00,48.3,48.0,30.10,SW,226,0.0,0.0,99,0.00,,OVC008,0.00,VWS V14.01,2013-03-15 14:08:00,
2013-03-15 07:11:00,48.3,48.0,30.10,SW,226,0.0,0.0,99,0.00,,OVC008,0.00,VWS V14.01,2013-03-15 14:11:00,
2013-03-15 07:12:00,48.3,48.0,30.10,SW,226,0.0,0.0,99,0.00,,OVC008,0.00,VWS V14.01,2013-03-15 14:12:00,
2013-03-15 07:16:00,48.3,48.0,30.10,SW,226,0.0,0.0,99,0.00,,OVC008,0.00,VWS V14.01,2013-03-15 14:16:00,
2013-03-15 07:17:00,48.3,48.0,30.10,SW,226,0.0,0.0,99,0.00,,OVC008,0.00,VWS V14.01,2013-03-15 14:17:00,
2013-03-15 07:18:00,48.3,48.0,30.10,SW,226,0.0,0.0,99,0.00,,OVC008,0.00,VWS V14.01,2013-03-15 14:18:00,
2013-03-15 07:20:00,48.3,48.0,30.10,SW,226,0.0,2.0,99,0.00,,OVC008,0.00,VWS V14.01,2013-03-15 14:20:00,
2013-03-15 07:25:00,48.3,48.0,30.10,SW,226,0.0,0.0,99,0.00,,OVC008,0.00,VWS V14.01,2013-03-15 14:25:00,
2013-03-15 07:26:00,48.3,48.0,30.10,SW,226,0.0,0.0,99,0.00,,OVC008,0.00,VWS V14.01,2013-03-15 14:26:00,
2013-03-15 07:29:00,48.3,48.0,30.10,SW,226,0.0,0.0,99,0.00,,OVC008,0.00,VWS V14.01,2013-03-15 14:29:00,
2013-03-15 07:31:00,48.3,48.0,30.10,SW,226,0.0,0.0,99,0.00,,OVC008,0.00,VWS V14.01,2013-03-15 14:31:00,
2013-03-15 07:35:00,48.3,48.0,30.10,SW,226,0.0,0.0,99,0.00,,OVC008,0.00,VWS V14.01,2013-03-15 14:35:00,
2013-03-15 07:36:00,48.3,48.0,30.10,SW,226,0.0,0.0,99,0.00,,OVC008,0.00,VWS V14.01,2013-03-15 14:36:00,
2013-03-15 07:37:00,48.3,48.0,30.10,SW,226,0.0,0.0,99,0.00,,OVC008,0.00,VWS V14.01,2013-03-15 14:37:00,
2013-03-15 07:40:00,48.3,48.0,30.10,SW,226,0.0,2.0,99,0.00,,OVC008,0.00,VWS V14.01,2013-03-15 14:40:00,
2013-03-15 07:41:00,48.3,48.0,30.10,SW,226,0.0,2.0,99,0.00,,OVC008,0.00,VWS V14.01,2013-03-15 14:41:00,
2013-03-15 07:42:00,48.3,48.0,30.10,SW,226,0.0,0.0,99,0.00,,OVC008,0.00,VWS V14.01,2013-03-15 14:42:00,
2013-03-15 07:44:00,48.3,48.0,30.10,SW,226,0.0,0.0,99,0.00,,OVC008,0.00,VWS V14.01,2013-03-15 14:44:00,
2013-03-15 07:47:00,48.3,48.0,30.10,SW,226,2.0,2.0,99,0.00,,OVC008,0.00,VWS V14.01,2013-03-15 14:47:00,
2013-03-15 07:50:00,48.3,48.0,30.10,SW,226,0.0,2.0,99,0.00,,OVC008,0.00,VWS V14.01,2013-03-15 14:50:00,
2013-03-15 07:51:00,48.3,48.0,30.10,SW,226,0.0,2.0,99,0.00,,OVC008,0.00,VWS V14.01,2013-03-15 14:51:00,
2013-03-15 07:54:00,48.3,48.0,30.10,SW,226,0.0,0.0,99,0.00,,OVC008,0.00,VWS V14.01,2013-03-15 14:54:00,
2013-03-15 07:56:00,48.3,48.0,30.10,SW,226,0.0,0.0,99,0.00,,OVC008,0.00,VWS V14.01,2013-03-15 14:56:00,
2013-03-15 07:57:00,48.3,48.0,30.10,SW,226,1.0,1.0,99,0.00,,OVC008,0.00,VWS V14.01,2013-03-15 14:57:00,
2013-03-15 07:59:00,48.3,48.0,30.10,SW,226,0.0,1.0,99,0.00,,OVC008,0.00,VWS V14.01,2013-03-15 14:59:00,
2013-03-15 08:02:00,48.3,48.0,30.11,SW,226,0.0,0.0,99,0.00,,OVC024,0.00,VWS V14.01,2013-03-15 15:02:00,
2013-03-15 08:04:00,48.3,48.0,30.11,SW,226,0.0,0.0,99,0.00,,OVC024,0.00,VWS V14.01,2013-03-15 15:04:00,
2013-03-15 08:05:00,48.3,48.0,30.11,SW,226,0.0,0.0,99,0.00,,OVC024,0.00,VWS V14.01,2013-03-15 15:05:00,
2013-03-15 08:07:00,48.3,48.0,30.11,SW,226,0.0,0.0,99,0.00,,OVC024,0.00,VWS V14.01,2013-03-15 15:07:00,
2013-03-15 08:09:00,48.3,48.0,30.11,SW,226,0.0,0.0,99,0.00,,OVC024,0.00,VWS V14.01,2013-03-15 15:09:00,
2013-03-15 08:13:00,48.3,48.0,30.11,SW,226,0.0,0.0,99,0.00,,OVC024,0.00,VWS V14.01,2013-03-15 15:13:00,
2013-03-15 08:15:00,48.3,48.0,30.11,SW,226,0.0,0.0,99,0.00,,OVC024,0.00,VWS V14.01,2013-03-15 15:15:00,
2013-03-15 08:17:00,48.3,48.0,30.11,SW,226,0.0,0.0,99,0.00,,OVC024,0.00,VWS V14.01,2013-03-15 15:17:00,
2013-03-15 08:18:00,48.3,48.0,30.11,SW,226,0.0,0.0,99,0.00,,OVC024,0.00,VWS V14.01,2013-03-15 15:18:00,
2013-03-15 08:22:00,48.3,48.0,30.11,SW,226,0.0,0.0,99,0.00,,OVC024,0.00,VWS V14.01,2013-03-15 15:22:00,
2013-03-15 08:24:00,48.3,48.0,30.11,SW,226,0.0,0.0,99,0.00,,OVC024,0.00,VWS V14.01,2013-03-15 15:24:00,
2013-03-15 08:27:00,48.3,48.0,30.11,SW,226,0.0,1.0,99,0.00,,OVC024,0.00,VWS V14.01,2013-03-15 15:27:00,
2013-03-15 08:29:00,48.3,48.0,30.11,SW,226,0.0,1.0,99,0.00,,OVC024,0.00,VWS V14.01,2013-03-15 15:29:00,
2013-03-15 08:31:00,48.3,48.0,30.12,SW,226,1.0,2.0,99,0.00,,OVC024,0.00,VWS V14.01,2013-03-15 15:31:00,
2013-03-15 08:33:00,48.3,48.0,30.12,SW,226,0.0,1.0,99,0.00,,OVC024,0.00,VWS V14.01,2013-03-15 15:33:00,
2013-03-15 08:34:00,48.3,48.0,30.12,SW,226,0.0,1.0,99,0.00,,OVC024,0.00,VWS V14.01,2013-03-15 15:34:00,
2013-03-15 08:36:00,48.3,48.0,30.12,SW,226,0.0,1.0,99,0.00,,OVC024,0.00,VWS V14.01,2013-03-15 15:36:00,
2013-03-15 08:41:00,48.3,48.0,30.12,SW,226,0.0,0.0,99,0.00,,OVC024,0.00,VWS V14.01,2013-03-15 15:41:00,
2013-03-15 08:42:00,48.3,48.0,30.12,SW,226,0.0,0.0,99,0.00,,OVC024,0.00,VWS V14.01,2013-03-15 15:42:00,
2013-03-15 08:43:00,48.3,48.0,30.12,SW,226,0.0,0.0,99,0.00,,OVC024,0.00,VWS V14.01,2013-03-15 15:43:00,
2013-03-15 08:46:00,48.3,48.0,30.12,SW,226,0.0,0.0,99,0.00,,OVC024,0.00,VWS V14.01,2013-03-15 15:46:00,
2013-03-15 08:48:00,48.3,48.0,30.12,SW,226,0.0,0.0,99,0.00,,OVC024,0.00,VWS V14.01,2013-03-15 15:48:00,
2013-03-15 08:50:00,48.3,48.0,30.12,SW,226,0.0,0.0,99,0.00,,OVC024,0.00,VWS V14.01,2013-03-15 15:50:00,
2013-03-15 08:51:00,48.3,48.0,30.12,SW,226,0.0,0.0,99,0.00,,OVC024,0.00,VWS V14.01,2013-03-15 15:51:00,
2013-03-15 08:56:00,48.3,48.0,30.12,SW,226,1.0,1.0,99,0.00,,OVC024,0.00,VWS V14.01,2013-03-15 15:56:00,
2013-03-15 08:58:00,48.3,48.0,30.12,SW,226,0.0,1.0,99,0.00,,OVC024,0.00,VWS V14.01,2013-03-15 15:58:00,
2013-03-15 09:01:00,48.3,48.0,30.12,SW,226,0.0,1.0,99,0.00,,OVC008,0.00,VWS V14.01,2013-03-15 16:01:00,
2013-03-15 09:02:00,48.3,48.0,30.12,SW,226,0.0,0.0,99,0.00,,OVC008,0.00,VWS V14.01,2013-03-15 16:02:00,
2013-03-15 09:03:00,48.3,48.0,30.12,SW,226,0.0,0.0,99,0.00,,OVC008,0.00,VWS V14.01,2013-03-15 16:03:00,
2013-03-15 09:07:00,48.8,48.5,30.12,SW,226,0.0,0.0,99,0.00,,OVC008,0.00,VWS V14.01,2013-03-15 16:07:00,
2013-03-15 09:11:00,48.8,48.5,30.12,SW,226,0.0,2.0,99,0.00,,OVC008,0.00,VWS V14.01,2013-03-15 16:11:00,
2013-03-15 09:13:00,48.8,48.5,30.12,SW,226,0.0,2.0,99,0.00,,OVC008,0.00,VWS V14.01,2013-03-15 16:13:00,
2013-03-15 09:16:00,49.2,48.9,30.13,SW,226,0.0,0.0,99,0.00,,OVC008,0.00,VWS V14.01,2013-03-15 16:16:00,
2013-03-15 09:17:00,49.2,48.9,30.13,SW,226,0.0,0.0,99,0.00,,OVC008,0.00,VWS V14.01,2013-03-15 16:17:00,
2013-03-15 09:21:00,49.2,48.9,30.13,SW,226,0.0,0.0,99,0.00,,OVC008,0.00,VWS V14.01,2013-03-15 16:21:00,
2013-03-15 09:22:00,49.2,48.9,30.13,SW,226,2.0,2.0,99,0.00,,OVC008,0.00,VWS V14.01,2013-03-15 16:22:00,
2013-03-15 09:23:00,49.4,49.1,30.13,East,88,2.0,3.0,99,0.00,,OVC008,0.00,VWS V14.01,2013-03-15 16:23:00,
2013-03-15 09:27:00,49.4,49.1,30.13,East,88,0.0,0.0,99,0.00,,OVC008,0.00,VWS V14.01,2013-03-15 16:27:00,
2013-03-15 09:28:00,49.5,49.2,30.13,East,88,0.0,0.0,99,0.00,,OVC008,0.00,VWS V14.01,2013-03-15 16:28:00,
2013-03-15 09:31:00,49.6,49.3,30.13,East,88,0.0,1.0,99,0.00,,OVC008,0.00,VWS V14.01,2013-03-15 16:31:00,
2013-03-15 09:32:00,49.6,49.3,30.13,East,88,0.0,0.0,99,0.00,,OVC008,0.00,VWS V14.01,2013-03-15 16:32:00,
2013-03-15 09:33:00,49.6,49.3,30.13,East,88,1.0,2.0,99,0.00,,OVC008,0.00,VWS V14.01,2013-03-15 16:33:00,
2013-03-15 09:36:00,49.6,49.3,30.13,East,88,0.0,2.0,99,0.00,,OVC008,0.00,VWS V14.01,2013-03-15 16:36:00,
2013-03-15 09:37:00,49.6,49.3,30.13,East,88,0.0,0.0,99,0.00,,OVC008,0.00,VWS V14.01,2013-03-15 16:37:00,
2013-03-15 09:38:00,49.8,49.5,30.13,East,88,0.0,0.0,99,0.00,,OVC008,0.00,VWS V14.01,2013-03-15 16:38:00,
2013-03-15 09:39:00,49.8,49.5,30.13,East,88,0.0,2.0,99,0.00,,OVC008,0.00,VWS V14.01,2013-03-15 16:39:00,
2013-03-15 09:43:00,49.8,49.5,30.13,South,175,2.0,4.0,99,0.00,,OVC008,0.00,VWS V14.01,2013-03-15 16:43:00,
2013-03-15 09:44:00,49.8,49.5,30.13,South,178,0.0,4.0,99,0.00,,OVC008,0.00,VWS V14.01,2013-03-15 16:44:00,
2013-03-15 09:45:00,49.8,49.5,30.13,South,178,0.0,4.0,99,0.00,,OVC008,0.00,VWS V14.01,2013-03-15 16:45:00,
2013-03-15 09:46:00,49.8,49.5,30.14,South,178,2.0,4.0,99,0.00,,OVC008,0.00,VWS V14.01,2013-03-15 16:46:00,
2013-03-15 09:50:00,49.8,49.5,30.14,South,178,2.0,2.0,99,0.00,,OVC008,0.00,VWS V14.01,2013-03-15 16:50:00,
2013-03-15 09:51:00,49.8,49.5,30.14,South,178,2.0,3.0,99,0.00,,OVC008,0.00,VWS V14.01,2013-03-15 16:51:00,
2013-03-15 09:54:00,49.8,49.5,30.14,South,178,0.0,2.0,99,0.00,,OVC008,0.00,VWS V14.01,2013-03-15 16:54:00,
2013-03-15 09:56:00,49.6,49.3,30.14,South,178,1.0,3.0,99,0.00,,OVC008,0.00,VWS V14.01,2013-03-15 16:56:00,
2013-03-15 09:58:00,49.6,49.3,30.14,SW,223,5.0,5.0,99,0.00,,OVC008,0.00,VWS V14.01,2013-03-15 16:58:00,
2013-03-15 10:01:00,49.6,49.3,30.14,SW,223,0.0,5.0,99,0.00,,OVC008,0.00,VWS V14.01,2013-03-15 17:01:00,
2013-03-15 10:02:00,49.6,49.3,30.14,SW,223,0.0,0.0,99,0.00,,OVC008,0.00,VWS V14.01,2013-03-15 17:02:00,
2013-03-15 10:03:00,49.6,49.3,30.14,SW,223,0.0,0.0,99,0.00,,OVC008,0.00,VWS V14.01,2013-03-15 17:03:00,
2013-03-15 10:04:00,49.6,49.3,30.14,SW,223,0.0,0.0,99,0.00,,OVC008,0.00,VWS V14.01,2013-03-15 17:04:00,
2013-03-15 10:06:00,49.8,49.5,30.14,SW,223,2.0,2.0,99,0.00,,OVC008,0.00,VWS V14.01,2013-03-15 17:06:00,
2013-03-15 10:07:00,49.8,49.3,30.14,SW,223,0.0,2.0,98,0.00,,OVC008,0.00,VWS V14.01,2013-03-15 17:07:00,
2013-03-15 10:11:00,49.9,49.4,30.14,SW,223,2.0,3.0,98,0.00,,OVC008,0.00,VWS V14.01,2013-03-15 17:11:00,
2013-03-15 10:12:00,50.1,49.6,30.14,SW,223,0.0,2.0,98,0.00,,OVC008,0.00,VWS V14.01,2013-03-15 17:12:00,
2013-03-15 10:13:00,50.1,49.8,30.14,SW,223,4.0,4.0,99,0.00,,OVC008,0.00,VWS V14.01,2013-03-15 17:13:00,
2013-03-15 10:17:00,50.4,49.9,30.14,WSW,254,5.0,5.0,98,0.00,,OVC008,0.00,VWS V14.01,2013-03-15 17:17:00,
2013-03-15 10:18:00,50.2,49.7,30.14,WSW,251,2.0,5.0,98,0.00,,OVC008,0.00,VWS V14.01,2013-03-15 17:18:00,
2013-03-15 10:19:00,50.4,49.9,30.14,WSW,251,0.0,5.0,98,0.00,,OVC008,0.00,VWS V14.01,2013-03-15 17:19:00,
2013-03-15 10:23:00,50.4,49.9,30.14,SW,215,1.0,3.0,98,0.00,,OVC008,0.00,VWS V14.01,2013-03-15 17:23:00,
2013-03-15 10:26:00,50.4,49.9,30.14,SSW,193,0.0,3.0,98,0.00,,OVC008,0.00,VWS V14.01,2013-03-15 17:26:00,
2013-03-15 10:27:00,50.5,50.0,30.14,SSW,193,0.0,0.0,98,0.00,,OVC008,0.00,VWS V14.01,2013-03-15 17:27:00,
2013-03-15 10:31:00,50.7,49.9,30.14,WSW,256,0.0,2.0,97,0.00,,OVC008,0.00,VWS V14.01,2013-03-15 17:31:00,
2013-03-15 10:32:00,50.5,49.7,30.14,WSW,256,0.0,2.0,97,0.00,,OVC008,0.00,VWS V14.01,2013-03-15 17:32:00,
2013-03-15 10:33:00,50.7,49.9,30.14,WSW,256,1.0,2.0,97,0.00,,OVC008,0.00,VWS V14.01,2013-03-15 17:33:00,
2013-03-15 10:36:00,50.8,50.0,30.14,SSE,164,2.0,2.0,97,0.00,,OVC008,0.00,VWS V14.01,2013-03-15 17:36:00,
2013-03-15 10:38:00,50.8,50.0,30.14,SSE,164,0.0,2.0,97,0.00,,OVC008,0.00,VWS V14.01,2013-03-15 17:38:00,
2013-03-15 10:41:00,51.0,50.2,30.14,South,172,0.0,2.0,97,0.00,,OVC008,0.00,VWS V14.01,2013-03-15 17:41:00,
2013-03-15 10:42:00,51.0,50.2,30.14,South,172,0.0,1.0,97,0.00,,OVC008,0.00,VWS V14.01,2013-03-15 17:42:00,
2013-03-15 10:44:00,51.0,49.9,30.14,South,172,0.0,1.0,96,0.00,,OVC008,0.00,VWS V14.01,2013-03-15 17:44:00,
2013-03-15 10:46:00,51.0,49.9,30.14,SW,236,2.0,5.0,96,0.00,,OVC008,0.00,VWS V14.01,2013-03-15 17:46:00,
2013-03-15 10:48:00,51.0,49.9,30.14,SW,236,1.0,2.0,96,0.00,,OVC008,0.00,VWS V14.01,2013-03-15 17:48:00,
2013-03-15 10:51:00,51.1,50.0,30.14,SW,236,0.0,3.0,96,0.00,,OVC008,0.00,VWS V14.01,2013-03-15 17:51:00,
2013-03-15 10:54:00,51.1,50.0,30.14,SW,236,0.0,3.0,96,0.00,,OVC008,0.00,VWS V14.01,2013-03-15 17:54:00,
2013-03-15 10:57:00,51.1,49.7,30.14,SW,236,0.0,0.0,95,0.00,,OVC008,0.00,VWS V14.01,2013-03-15 17:57:00,
2013-03-15 10:58:00,51.1,49.7,30.14,SW,236,0.0,0.0,95,0.00,,OVC008,0.00,VWS V14.01,2013-03-15 17:58:00,
2013-03-15 11:03:00,51.3,49.9,30.14,South,176,3.0,3.0,95,0.00,,OVC010,0.00,VWS V14.01,2013-03-15 18:03:00,
2013-03-15 11:04:00,51.3,49.9,30.14,South,176,1.0,3.0,95,0.00,,OVC010,0.00,VWS V14.01,2013-03-15 18:04:00,
2013-03-15 11:06:00,51.3,49.9,30.14,South,176,0.0,3.0,95,0.00,,OVC010,0.00,VWS V14.01,2013-03-15 18:06:00,
2013-03-15 11:09:00,51.3,49.9,30.14,South,176,1.0,1.0,95,0.00,,OVC010,0.00,VWS V14.01,2013-03-15 18:09:00,
2013-03-15 11:12:00,51.4,50.0,30.14,SSE,152,2.0,2.0,95,0.00,,OVC010,0.00,VWS V14.01,2013-03-15 18:12:00,
2013-03-15 11:14:00,51.4,50.0,30.14,SSE,152,0.0,2.0,95,0.00,,OVC010,0.00,VWS V14.01,2013-03-15 18:14:00,
2013-03-15 11:18:00,51.4,49.7,30.14,SSE,154,0.0,0.0,94,0.00,,OVC010,0.00,VWS V14.01,2013-03-15 18:18:00,
2013-03-15 11:20:00,51.4,49.7,30.14,SSE,154,0.0,0.0,94,0.00,,OVC010,0.00,VWS V14.01,2013-03-15 18:20:00,
2013-03-15 11:21:00,51.4,49.7,30.14,SSE,158,0.0,1.0,94,0.00,,OVC010,0.00,VWS V14.01,2013-03-15 18:21:00,
2013-03-15 11:24:00,51.6,49.9,30.14,SE,138,1.0,2.0,94,0.00,,OVC010,0.00,VWS V14.01,2013-03-15 18:24:00,
2013-03-15 11:25:00,51.6,49.9,30.14,SE,138,1.0,2.0,94,0.00,,OVC010,0.00,VWS V14.01,2013-03-15 18:25:00,
2013-03-15 11:31:00,51.6,49.9,30.13,SE,138,0.0,2.0,94,0.00,,OVC010,0.00,VWS V14.01,2013-03-15 18:31:00,
2013-03-15 11:32:00,51.6,49.9,30.13,SE,138,0.0,0.0,94,0.00,,OVC010,0.00,VWS V14.01,2013-03-15 18:32:00,
2013-03-15 11:35:00,51.7,50.0,30.13,SE,140,0.0,0.0,94,0.00,,OVC010,0.00,VWS V14.01,2013-03-15 18:35:00,
2013-03-15 11:37:00,51.7,50.0,30.13,SSE,155,2.0,2.0,94,0.00,,OVC010,0.00,VWS V14.01,2013-03-15 18:37:00,
2013-03-15 11:40:00,51.7,49.8,30.13,SW,227,2.0,2.0,93,0.00,,OVC010,0.00,VWS V14.01,2013-03-15 18:40:00,
2013-03-15 11:41:00,51.7,49.8,30.13,SW,227,2.0,2.0,93,0.00,,OVC010,0.00,VWS V14.01,2013-03-15 18:41:00,
2013-03-15 11:42:00,51.7,49.8,30.13,SW,227,2.0,2.0,93,0.00,,OVC010,0.00,VWS V14.01,2013-03-15 18:42:00,
2013-03-15 11:45:00,51.7,49.8,30.13,SW,227,2.0,2.0,93,0.00,,OVC010,0.00,VWS V14.01,2013-03-15 18:45:00,
2013-03-15 11:46:00,51.7,49.8,30.13,SW,227,2.0,2.0,93,0.00,,OVC010,0.00,VWS V14.01,2013-03-15 18:46:00,
2013-03-15 11:48:00,51.7,49.8,30.13,SW,227,2.0,2.0,93,0.00,,OVC010,0.00,VWS V14.01,2013-03-15 18:48:00,
2013-03-15 11:50:00,51.7,49.8,30.13,SW,227,2.0,2.0,93,0.00,,OVC010,0.00,VWS V14.01,2013-03-15 18:50:00,
2013-03-15 11:51:00,51.7,49.8,30.13,SW,227,2.0,2.0,93,0.00,,OVC010,0.00,VWS V14.01,2013-03-15 18:51:00,
2013-03-15 11:52:00,51.7,49.8,30.13,SW,227,2.0,2.0,93,0.00,,OVC010,0.00,VWS V14.01,2013-03-15 18:52:00,
2013-03-15 11:57:00,51.7,49.8,30.13,SW,227,2.0,2.0,93,0.00,,OVC010,0.00,VWS V14.01,2013-03-15 18:57:00,
2013-03-15 11:58:00,51.7,49.8,30.13,SW,227,2.0,2.0,93,0.00,,OVC010,0.00,VWS V14.01,2013-03-15 18:58:00,
2013-03-15 12:00:00,51.7,49.8,30.13,SW,227,2.0,2.0,93,0.00,,OVC016,0.00,VWS V14.01,2013-03-15 19:00:00,
2013-03-15 12:02:00,51.7,49.8,30.13,SW,227,2.0,2.0,93,0.00,,OVC016,0.00,VWS V14.01,2013-03-15 19:02:00,
2013-03-15 12:03:00,51.7,49.8,30.13,SW,227,2.0,2.0,93,0.00,,OVC016,0.00,VWS V14.01,2013-03-15 19:03:00,
2013-03-15 12:06:00,51.7,49.8,30.13,SW,227,2.0,2.0,93,0.00,,OVC016,0.00,VWS V14.01,2013-03-15 19:06:00,
2013-03-15 12:09:00,51.7,49.8,30.13,SW,227,2.0,2.0,93,0.00,,OVC016,0.00,VWS V14.01,2013-03-15 19:09:00,
2013-03-15 12:11:00,51.7,49.8,30.13,SW,227,2.0,2.0,93,0.00,,OVC016,0.00,VWS V14.01,2013-03-15 19:11:00,
2013-03-15 12:12:00,51.7,49.8,30.13,SW,227,2.0,2.0,93,0.00,,OVC016,0.00,VWS V14.01,2013-03-15 19:12:00,
2013-03-15 12:14:00,51.7,49.8,30.13,SW,227,2.0,2.0,93,0.00,,OVC016,0.00,VWS V14.01,2013-03-15 19:14:00,
2013-03-15 12:16:00,51.7,49.8,30.13,SW,227,2.0,2.0,93,0.00,,OVC016,0.00,VWS V14.01,2013-03-15 19:16:00,
2013-03-15 12:17:00,51.7,49.8,30.13,SW,227,2.0,2.0,93,0.00,,OVC016,0.00,VWS V14.01,2013-03-15 19:17:00,
2013-03-15 12:22:00,51.7,49.8,30.13,SW,227,2.0,2.0,93,0.00,,OVC016,0.00,VWS V14.01,2013-03-15 19:22:00,
2013-03-15 12:23:00,51.7,49.8,30.13,SW,227,2.0,2.0,93,0.00,,OVC016,0.00,VWS V14.01,2013-03-15 19:23:00,
2013-03-15 12:27:00,51.7,49.8,30.13,SW,227,2.0,2.0,93,0.00,,OVC016,0.00,VWS V14.01,2013-03-15 19:27:00,
2013-03-15 12:30:00,51.7,49.8,30.13,SW,227,2.0,2.0,93,0.00,,OVC016,0.00,VWS V14.01,2013-03-15 19:30:00,
2013-03-15 12:31:00,51.7,49.8,30.13,SW,227,2.0,2.0,93,0.00,,OVC016,0.00,VWS V14.01,2013-03-15 19:31:00,
2013-03-15 12:34:00,51.7,49.8,30.13,SW,227,2.0,2.0,93,0.00,,OVC016,0.00,VWS V14.01,2013-03-15 19:34:00,
2013-03-15 12:35:00,51.7,49.8,30.13,SW,227,2.0,2.0,93,0.00,,OVC016,0.00,VWS V14.01,2013-03-15 19:35:00,
2013-03-15 12:38:00,51.7,49.8,30.13,SW,227,2.0,2.0,93,0.00,,OVC016,0.00,VWS V14.01,2013-03-15 19:38:00,
2013-03-15 12:40:00,51.7,49.8,30.13,SW,227,2.0,2.0,93,0.00,,OVC016,0.00,VWS V14.01,2013-03-15 19:40:00,
2013-03-15 12:45:00,51.7,49.8,30.13,SW,227,2.0,2.0,93,0.00,,OVC016,0.00,VWS V14.01,2013-03-15 19:45:00,
2013-03-15 12:46:00,51.7,49.8,30.13,SW,227,2.0,2.0,93,0.00,,OVC016,0.00,VWS V14.01,2013-03-15 19:46:00,
2013-03-15 12:50:00,51.7,49.8,30.13,SW,227,2.0,2.0,93,0.00,,OVC016,0.00,VWS V14.01,2013-03-15 19:50:00,
2013-03-15 12:51:00,51.7,49.8,30.13,SW,227,2.0,2.0,93,0.00,,OVC016,0.00,VWS V14.01,2013-03-15 19:51:00,
2013-03-15 12:56:00,51.7,49.8,30.13,SW,227,2.0,2.0,93,0.00,,OVC016,0.00,VWS V14.01,2013-03-15 19:56:00,
2013-03-15 12:57:00,51.7,49.8,30.13,SW,227,2.0,2.0,93,0.00,,OVC016,0.00,VWS V14.01,2013-03-15 19:57:00,
2013-03-15 13:01:00,51.7,49.8,30.13,SW,227,2.0,2.0,93,0.00,,OVC100,0.00,VWS V14.01,2013-03-15 20:01:00,
2013-03-15 13:02:00,51.7,49.8,30.13,SW,227,2.0,2.0,93,0.00,,OVC100,0.00,VWS V14.01,2013-03-15 20:02:00,
2013-03-15 13:03:00,51.7,49.8,30.13,SW,227,2.0,2.0,93,0.00,,OVC100,0.00,VWS V14.01,2013-03-15 20:03:00,
2013-03-15 13:06:00,51.7,49.8,30.13,SW,227,2.0,2.0,93,0.00,,OVC100,0.00,VWS V14.01,2013-03-15 20:06:00,
2013-03-15 13:08:00,51.7,49.8,30.13,SW,227,2.0,2.0,93,0.00,,OVC100,0.00,VWS V14.01,2013-03-15 20:08:00,
2013-03-15 13:09:00,51.7,49.8,30.13,SW,227,2.0,2.0,93,0.00,,OVC100,0.00,VWS V14.01,2013-03-15 20:09:00,
2013-03-15 13:13:00,51.7,49.8,30.13,SW,227,2.0,2.0,93,0.00,,OVC100,0.00,VWS V14.01,2013-03-15 20:13:00,
2013-03-15 13:15:00,51.7,49.8,30.13,SW,227,2.0,2.0,93,0.00,,OVC100,0.00,VWS V14.01,2013-03-15 20:15:00,
2013-03-15 13:16:00,51.7,49.8,30.12,SW,227,2.0,2.0,93,0.00,,OVC100,0.00,VWS V14.01,2013-03-15 20:16:00,
2013-03-15 13:19:00,51.7,49.8,30.12,SW,227,2.0,2.0,93,0.00,,OVC100,0.00,VWS V14.01,2013-03-15 20:19:00,
2013-03-15 13:20:00,51.7,49.8,30.12,SW,227,2.0,2.0,93,0.00,,OVC100,0.00,VWS V14.01,2013-03-15 20:20:00,
2013-03-15 13:21:00,51.7,49.8,30.12,SW,227,2.0,2.0,93,0.00,,OVC100,0.00,VWS V14.01,2013-03-15 20:21:00,
2013-03-15 13:24:00,51.7,49.8,30.12,SW,227,2.0,2.0,93,0.00,,OVC100,0.00,VWS V14.01,2013-03-15 20:24:00,
2013-03-15 13:26:00,51.7,49.8,30.12,SW,227,2.0,2.0,93,0.00,,OVC100,0.00,VWS V14.01,2013-03-15 20:26:00,
2013-03-15 13:30:00,51.7,49.8,30.12,SW,227,2.0,2.0,93,0.00,,OVC100,0.00,VWS V14.01,2013-03-15 20:30:00,
2013-03-15 13:31:00,51.7,49.8,30.12,SW,227,2.0,2.0,93,0.00,,OVC100,0.00,VWS V14.01,2013-03-15 20:31:00,
2013-03-15 13:32:00,51.7,49.8,30.12,SW,227,2.0,2.0,93,0.00,,OVC100,0.00,VWS V14.01,2013-03-15 20:32:00,
2013-03-15 13:36:00,51.7,49.8,30.12,SW,227,2.0,2.0,93,0.00,,OVC100,0.00,VWS V14.01,2013-03-15 20:36:00,
2013-03-15 13:37:00,51.7,49.8,30.12,SW,227,2.0,2.0,93,0.00,,OVC100,0.00,VWS V14.01,2013-03-15 20:37:00,
2013-03-15 13:40:00,51.7,49.8,30.12,SW,227,2.0,2.0,93,0.00,,OVC100,0.00,VWS V14.01,2013-03-15 20:40:00,
2013-03-15 13:41:00,51.7,49.8,30.12,SW,227,2.0,2.0,93,0.00,,OVC100,0.00,VWS V14.01,2013-03-15 20:41:00,
2013-03-15 13:42:00,51.7,49.8,30.12,SW,227,2.0,2.0,93,0.00,,OVC100,0.00,VWS V14.01,2013-03-15 20:42:00,
2013-03-15 13:45:00,51.7,49.8,30.12,SW,227,2.0,2.0,93,0.00,,OVC100,0.00,VWS V14.01,2013-03-15 20:45:00,
2013-03-15 13:46:00,51.7,49.8,30.13,SW,227,2.0,2.0,93,0.00,,OVC100,0.00,VWS V14.01,2013-03-15 20:46:00,
2013-03-15 13:49:00,51.7,49.8,30.13,SW,227,2.0,2.0,93,0.00,,OVC100,0.00,VWS V14.01,2013-03-15 20:49:00,
2013-03-15 13:51:00,51.7,49.8,30.13,SW,227,2.0,2.0,93,0.00,,OVC100,0.00,VWS V14.01,2013-03-15 20:51:00,
2013-03-15 13:53:00,51.7,49.8,30.13,SW,227,2.0,2.0,93,0.00,,OVC100,0.00,VWS V14.01,2013-03-15 20:53:00,
2013-03-15 13:55:00,51.7,49.8,30.13,SW,227,2.0,2.0,93,0.00,,OVC100,0.00,VWS V14.01,2013-03-15 20:55:00,
2013-03-15 13:58:00,51.7,49.8,30.13,SW,227,2.0,2.0,93,0.00,,OVC100,0.00,VWS V14.01,2013-03-15 20:58:00,
2013-03-15 14:01:00,51.7,49.8,30.12,SW,227,2.0,2.0,93,0.00,,OVC100,0.00,VWS V14.01,2013-03-15 21:01:00,
2013-03-15 14:03:00,51.7,49.8,30.12,SW,227,2.0,2.0,93,0.00,,OVC100,0.00,VWS V14.01,2013-03-15 21:03:00,
2013-03-15 14:04:00,51.7,49.8,30.12,SW,227,2.0,2.0,93,0.00,,OVC100,0.00,VWS V14.01,2013-03-15 21:04:00,
2013-03-15 14:08:00,51.7,49.8,30.12,SW,227,2.0,2.0,93,0.00,,OVC100,0.00,VWS V14.01,2013-03-15 21:08:00,
2013-03-15 14:09:00,51.7,49.8,30.12,SW,227,2.0,2.0,93,0.00,,OVC100,0.00,VWS V14.01,2013-03-15 21:09:00,
2013-03-15 14:10:00,51.7,49.8,30.12,SW,227,2.0,2.0,93,0.00,,OVC100,0.00,VWS V14.01,2013-03-15 21:10:00,
2013-03-15 14:11:00,51.7,49.8,30.12,SW,227,2.0,2.0,93,0.00,,OVC100,0.00,VWS V14.01,2013-03-15 21:11:00,
2013-03-15 14:15:00,51.7,49.8,30.11,SW,227,2.0,2.0,93,0.00,,OVC100,0.00,VWS V14.01,2013-03-15 21:15:00,
2013-03-15 14:16:00,51.7,49.8,30.11,SW,227,2.0,2.0,93,0.00,,OVC100,0.00,VWS V14.01,2013-03-15 21:16:00,
2013-03-15 14:18:00,51.7,49.8,30.11,SW,227,2.0,2.0,93,0.00,,OVC100,0.00,VWS V14.01,2013-03-15 21:18:00,
2013-03-15 14:19:00,51.7,49.8,30.11,SW,227,2.0,2.0,93,0.00,,OVC100,0.00,VWS V14.01,2013-03-15 21:19:00,
2013-03-15 14:21:00,51.7,49.8,30.11,SW,227,2.0,2.0,93,0.00,,OVC100,0.00,VWS V14.01,2013-03-15 21:21:00,
2013-03-15 14:22:00,51.7,49.8,30.11,SW,227,2.0,2.0,93,0.00,,OVC100,0.00,VWS V14.01,2013-03-15 21:22:00,
2013-03-15 14:24:00,51.7,49.8,30.11,SW,227,2.0,2.0,93,0.00,,OVC100,0.00,VWS V14.01,2013-03-15 21:24:00,
2013-03-15 14:28:00,51.7,49.8,30.11,SW,227,2.0,2.0,93,0.00,,OVC100,0.00,VWS V14.01,2013-03-15 21:28:00,
2013-03-15 14:29:00,51.7,49.8,30.11,SW,227,2.0,2.0,93,0.00,,OVC100,0.00,VWS V14.01,2013-03-15 21:29:00,
2013-03-15 14:30:00,51.7,49.8,30.11,SW,227,2.0,2.0,93,0.00,,OVC100,0.00,VWS V14.01,2013-03-15 21:30:00,
2013-03-15 14:33:00,51.7,49.8,30.10,SW,227,2.0,2.0,93,0.00,,OVC100,0.00,VWS V14.01,2013-03-15 21:33:00,
2013-03-15 14:35:00,51.7,49.8,30.10,SW,227,2.0,2.0,93,0.00,,OVC100,0.00,VWS V14.01,2013-03-15 21:35:00,
2013-03-15 14:37:00,51.7,49.8,30.10,SW,227,2.0,2.0,93,0.00,,OVC100,0.00,VWS V14.01,2013-03-15 21:37:00,
2013-03-15 14:38:00,51.7,49.8,30.10,SW,227,2.0,2.0,93,0.00,,OVC100,0.00,VWS V14.01,2013-03-15 21:38:00,
2013-03-15 14:41:00,51.7,49.8,30.10,SW,227,2.0,2.0,93,0.00,,OVC100,0.00,VWS V14.01,2013-03-15 21:41:00,
2013-03-15 14:44:00,51.7,49.8,30.10,SW,227,2.0,2.0,93,0.00,,OVC100,0.00,VWS V14.01,2013-03-15 21:44:00,
2013-03-15 14:46:00,51.7,49.8,30.09,SW,227,2.0,2.0,93,0.00,,OVC100,0.00,VWS V14.01,2013-03-15 21:46:00,
2013-03-15 14:48:00,51.7,49.8,30.09,SW,227,2.0,2.0,93,0.00,,OVC100,0.00,VWS V14.01,2013-03-15 21:48:00,
2013-03-15 14:49:00,51.7,49.8,30.09,SW,227,2.0,2.0,93,0.00,,OVC100,0.00,VWS V14.01,2013-03-15 21:49:00,
2013-03-15 14:50:00,51.7,49.8,30.09,SW,227,2.0,2.0,93,0.00,,OVC100,0.00,VWS V14.01,2013-03-15 21:50:00,
2013-03-15 14:54:00,51.7,49.8,30.09,SW,227,2.0,2.0,93,0.00,,OVC100,0.00,VWS V14.01,2013-03-15 21:54:00,
2013-03-15 14:55:00,51.7,49.8,30.09,SW,227,2.0,2.0,93,0.00,,OVC100,0.00,VWS V14.01,2013-03-15 21:55:00,
2013-03-15 14:56:00,51.7,49.8,30.09,SW,227,2.0,2.0,93,0.00,,OVC100,0.00,VWS V14.01,2013-03-15 21:56:00,
2013-03-15 14:57:00,51.7,49.8,30.09,SW,227,2.0,2.0,93,0.00,,OVC100,0.00,VWS V14.01,2013-03-15 21:57:00,
2013-03-15 14:59:00,51.7,49.8,30.09,SW,227,2.0,2.0,93,0.00,,OVC100,0.00,VWS V14.01,2013-03-15 21:59:00,
2013-03-15 15:02:00,51.7,49.8,30.09,SW,227,2.0,2.0,93,0.00,,OVC110,0.00,VWS V14.01,2013-03-15 22:02:00,
2013-03-15 15:03:00,51.7,49.8,30.09,SW,227,2.0,2.0,93,0.00,,OVC110,0.00,VWS V14.01,2013-03-15 22:03:00,
2013-03-15 15:04:00,51.7,49.8,30.09,SW,227,2.0,2.0,93,0.00,,OVC110,0.00,VWS V14.01,2013-03-15 22:04:00,
2013-03-15 15:06:00,51.7,49.8,30.09,SW,227,2.0,2.0,93,0.00,,OVC110,0.00,VWS V14.01,2013-03-15 22:06:00,
2013-03-15 15:08:00,51.7,49.8,30.09,SW,227,2.0,2.0,93,0.00,,OVC110,0.00,VWS V14.01,2013-03-15 22:08:00,
2013-03-15 15:11:00,51.7,49.8,30.09,SW,227,2.0,2.0,93,0.00,,OVC110,0.00,VWS V14.01,2013-03-15 22:11:00,
2013-03-15 15:12:00,51.7,49.8,30.09,SW,227,2.0,2.0,93,0.00,,OVC110,0.00,VWS V14.01,2013-03-15 22:12:00,
2013-03-15 15:14:00,51.7,49.8,30.09,SW,227,2.0,2.0,93,0.00,,OVC110,0.00,VWS V14.01,2013-03-15 22:14:00,
2013-03-15 15:17:00,51.7,49.8,30.10,SW,227,2.0,2.0,93,0.00,,OVC110,0.00,VWS V14.01,2013-03-15 22:17:00,
2013-03-15 15:19:00,51.7,49.8,30.10,SW,227,2.0,2.0,93,0.00,,OVC110,0.00,VWS V14.01,2013-03-15 22:19:00,
2013-03-15 15:20:00,51.7,49.8,30.10,SW,227,2.0,2.0,93,0.00,,OVC110,0.00,VWS V14.01,2013-03-15 22:20:00,
2013-03-15 15:21:00,51.7,49.8,30.10,SW,227,2.0,2.0,93,0.00,,OVC110,0.00,VWS V14.01,2013-03-15 22:21:00,
2013-03-15 15:24:00,51.7,49.8,30.10,SW,227,2.0,2.0,93,0.00,,OVC110,0.00,VWS V14.01,2013-03-15 22:24:00,
2013-03-15 15:25:00,51.7,49.8,30.10,SW,227,2.0,2.0,93,0.00,,OVC110,0.00,VWS V14.01,2013-03-15 22:25:00,
2013-03-15 15:27:00,51.7,49.8,30.10,SW,227,2.0,2.0,93,0.00,,OVC110,0.00,VWS V14.01,2013-03-15 22:27:00,
2013-03-15 15:31:00,51.7,49.8,30.09,SW,227,2.0,2.0,93,0.00,,OVC110,0.00,VWS V14.01,2013-03-15 22:31:00,
2013-03-15 15:32:00,51.7,49.8,30.09,SW,227,2.0,2.0,93,0.00,,OVC110,0.00,VWS V14.01,2013-03-15 22:32:00,
2013-03-15 15:33:00,51.7,49.8,30.09,SW,227,2.0,2.0,93,0.00,,OVC110,0.00,VWS V14.01,2013-03-15 22:33:00,
2013-03-15 15:36:00,51.7,49.8,30.09,SW,227,2.0,2.0,93,0.00,,OVC110,0.00,VWS V14.01,2013-03-15 22:36:00,
2013-03-15 15:38:00,51.7,49.8,30.09,SW,227,2.0,2.0,93,0.00,,OVC110,0.00,VWS V14.01,2013-03-15 22:38:00,
2013-03-15 15:41:00,51.7,49.8,30.09,SW,227,2.0,2.0,93,0.00,,OVC110,0.00,VWS V14.01,2013-03-15 22:41:00,
2013-03-15 15:42:00,51.7,49.8,30.09,SW,227,2.0,2.0,93,0.00,,OVC110,0.00,VWS V14.01,2013-03-15 22:42:00,
2013-03-15 15:43:00,51.7,49.8,30.09,SW,227,2.0,2.0,93,0.00,,OVC110,0.00,VWS V14.01,2013-03-15 22:43:00,
2013-03-15 15:46:00,51.7,49.8,30.09,SW,227,2.0,2.0,93,0.00,,OVC110,0.00,VWS V14.01,2013-03-15 22:46:00,
2013-03-15 15:47:00,51.7,49.8,30.09,SW,227,2.0,2.0,93,0.00,,OVC110,0.00,VWS V14.01,2013-03-15 22:47:00,
2013-03-15 15:48:00,51.7,49.8,30.09,SW,227,2.0,2.0,93,0.00,,OVC110,0.00,VWS V14.01,2013-03-15 22:48:00,
2013-03-15 15:50:00,51.7,49.8,30.09,SW,227,2.0,2.0,93,0.00,,OVC110,0.00,VWS V14.01,2013-03-15 22:50:00,
2013-03-15 15:52:00,51.7,49.8,30.09,SW,227,2.0,2.0,93,0.00,,OVC110,0.00,VWS V14.01,2013-03-15 22:52:00,
2013-03-15 15:53:00,51.7,49.8,30.09,SW,227,2.0,2.0,93,0.00,,OVC110,0.00,VWS V14.01,2013-03-15 22:53:00,
2013-03-15 15:55:00,51.7,49.8,30.09,SW,227,2.0,2.0,93,0.00,,OVC110,0.00,VWS V14.01,2013-03-15 22:55:00,
2013-03-15 15:56:00,51.7,49.8,30.09,SW,227,2.0,2.0,93,0.00,,OVC110,0.00,VWS V14.01,2013-03-15 22:56:00,
2013-03-15 16:00:00,51.7,49.8,30.09,SW,227,2.0,2.0,93,0.00,,OVC110,0.00,VWS V14.01,2013-03-15 23:00:00,
2013-03-15 16:01:00,51.7,49.8,30.09,SW,227,2.0,2.0,93,0.00,,OVC110,0.00,VWS V14.01,2013-03-15 23:01:00,
2013-03-15 16:02:00,51.7,49.8,30.09,SW,227,2.0,2.0,93,0.00,,OVC110,0.00,VWS V14.01,2013-03-15 23:02:00,
2013-03-15 16:04:00,51.7,49.8,30.09,SW,227,2.0,2.0,93,0.00,,OVC110,0.00,VWS V14.01,2013-03-15 23:04:00,
2013-03-15 16:05:00,51.7,49.8,30.09,SW,227,2.0,2.0,93,0.00,,OVC110,0.00,VWS V14.01,2013-03-15 23:05:00,
2013-03-15 16:06:00,51.7,49.8,30.09,SW,227,2.0,2.0,93,0.00,,OVC110,0.00,VWS V14.01,2013-03-15 23:06:00,
2013-03-15 16:09:00,51.7,49.8,30.09,SW,227,2.0,2.0,93,0.00,,OVC110,0.00,VWS V14.01,2013-03-15 23:09:00,
2013-03-15 16:12:00,51.7,49.8,30.09,SW,227,2.0,2.0,93,0.00,,OVC110,0.00,VWS V14.01,2013-03-15 23:12:00,
2013-03-15 16:13:00,51.7,49.8,30.09,SW,227,2.0,2.0,93,0.00,,OVC110,0.00,VWS V14.01,2013-03-15 23:13:00,
2013-03-15 16:14:00,51.7,49.8,30.09,SW,227,2.0,2.0,93,0.00,,OVC110,0.00,VWS V14.01,2013-03-15 23:14:00,
2013-03-15 16:15:00,51.7,49.8,30.09,SW,227,2.0,2.0,93,0.00,,OVC110,0.00,VWS V14.01,2013-03-15 23:15:00,
2013-03-15 16:18:00,51.7,49.8,30.09,SW,227,2.0,2.0,93,0.00,,OVC110,0.00,VWS V14.01,2013-03-15 23:18:00,
2013-03-15 16:20:00,51.7,49.8,30.09,SW,227,2.0,2.0,93,0.00,,OVC110,0.00,VWS V14.01,2013-03-15 23:20:00,
2013-03-15 16:21:00,51.7,49.8,30.09,SW,227,2.0,2.0,93,0.00,,OVC110,0.00,VWS V14.01,2013-03-15 23:21:00,
2013-03-15 16:23:00,51.7,49.8,30.09,SW,227,2.0,2.0,93,0.00,,OVC110,0.00,VWS V14.01,2013-03-15 23:23:00,
2013-03-15 16:26:00,51.7,49.8,30.09,SW,227,2.0,2.0,93,0.00,,OVC110,0.00,VWS V14.01,2013-03-15 23:26:00,
2013-03-15 16:27:00,51.7,49.8,30.09,SW,227,2.0,2.0,93,0.00,,OVC110,0.00,VWS V14.01,2013-03-15 23:27:00,
2013-03-15 16:28:00,51.7,49.8,30.09,SW,227,2.0,2.0,93,0.00,,OVC110,0.00,VWS V14.01,2013-03-15 23:28:00,
2013-03-15 16:30:00,51.7,49.8,30.09,SW,227,2.0,2.0,93,0.00,,OVC110,0.00,VWS V14.01,2013-03-15 23:30:00,
2013-03-15 16:34:00,51.7,49.8,30.09,SW,227,2.0,2.0,93,0.00,,OVC110,0.00,VWS V14.01,2013-03-15 23:34:00,
2013-03-15 16:36:00,51.7,49.8,30.09,SW,227,2.0,2.0,93,0.00,,OVC110,0.00,VWS V14.01,2013-03-15 23:36:00,
2013-03-15 16:39:00,51.7,49.8,30.09,SW,227,2.0,2.0,93,0.00,,OVC110,0.00,VWS V14.01,2013-03-15 23:39:00,
2013-03-15 16:40:00,51.7,49.8,30.09,SW,227,2.0,2.0,93,0.00,,OVC110,0.00,VWS V14.01,2013-03-15 23:40:00,
2013-03-15 16:41:00,51.7,49.8,30.09,SW,227,2.0,2.0,93,0.00,,OVC110,0.00,VWS V14.01,2013-03-15 23:41:00,
2013-03-15 16:46:00,51.7,49.8,30.09,SW,227,2.0,2.0,93,0.00,,OVC110,0.00,VWS V14.01,2013-03-15 23:46:00,
2013-03-15 16:47:00,51.7,49.8,30.09,SW,227,2.0,2.0,93,0.00,,OVC110,0.00,VWS V14.01,2013-03-15 23:47:00,
2013-03-15 16:48:00,51.7,49.8,30.09,SW,227,2.0,2.0,93,0.00,,OVC110,0.00,VWS V14.01,2013-03-15 23:48:00,
2013-03-15 16:49:00,51.7,49.8,30.09,SW,227,2.0,2.0,93,0.00,,OVC110,0.00,VWS V14.01,2013-03-15 23:49:00,
2013-03-15 16:54:00,51.7,49.8,30.09,SW,227,2.0,2.0,93,0.00,,OVC110,0.00,VWS V14.01,2013-03-15 23:54:00,
2013-03-15 16:55:00,51.7,49.8,30.09,SW,227,2.0,2.0,93,0.00,,OVC110,0.00,VWS V14.01,2013-03-15 23:55:00,
2013-03-15 16:56:00,51.7,49.8,30.09,SW,227,2.0,2.0,93,0.00,,OVC110,0.00,VWS V14.01,2013-03-15 23:56:00,
2013-03-15 16:57:00,51.7,49.8,30.09,SW,227,2.0,2.0,93,0.00,,OVC110,0.00,VWS V14.01,2013-03-15 23:57:00,
2013-03-15 17:00:00,51.7,49.8,30.09,SW,227,2.0,2.0,93,0.00,,OVC110,0.00,VWS V14.01,2013-03-16 00:00:00,
2013-03-15 17:03:00,51.7,49.8,30.09,SW,227,2.0,2.0,93,0.00,,BKN110,0.00,VWS V14.01,2013-03-16 00:03:00,
2013-03-15 17:04:00,51.7,49.8,30.09,SW,227,2.0,2.0,93,0.00,,BKN110,0.00,VWS V14.01,2013-03-16 00:04:00,
2013-03-15 17:06:00,51.7,49.8,30.09,SW,227,2.0,2.0,93,0.00,,BKN110,0.00,VWS V14.01,2013-03-16 00:06:00,
2013-03-15 17:08:00,51.7,49.8,30.09,SW,227,2.0,2.0,93,0.00,,BKN110,0.00,VWS V14.01,2013-03-16 00:08:00,
2013-03-15 17:09:00,51.7,49.8,30.09,SW,227,2.0,2.0,93,0.00,,BKN110,0.00,VWS V14.01,2013-03-16 00:09:00,
2013-03-15 17:11:00,51.7,49.8,30.09,SW,227,2.0,2.0,93,0.00,,BKN110,0.00,VWS V14.01,2013-03-16 00:11:00,
2013-03-15 17:14:00,51.7,49.8,30.09,SW,227,2.0,2.0,93,0.00,,BKN110,0.00,VWS V14.01,2013-03-16 00:14:00,
2013-03-15 17:15:00,51.7,49.8,30.08,SW,227,2.0,2.0,93,0.00,,BKN110,0.00,VWS V14.01,2013-03-16 00:15:00,
2013-03-15 17:17:00,51.7,49.8,30.08,SW,227,2.0,2.0,93,0.00,,BKN110,0.00,VWS V14.01,2013-03-16 00:17:00,
2013-03-15 17:18:00,51.7,49.8,30.08,SW,227,2.0,2.0,93,0.00,,BKN110,0.00,VWS V14.01,2013-03-16 00:18:00,
2013-03-15 17:21:00,51.7,49.8,30.08,SW,227,2.0,2.0,93,0.00,,BKN110,0.00,VWS V14.01,2013-03-16 00:21:00,
2013-03-15 17:22:00,51.7,49.8,30.08,SW,227,2.0,2.0,93,0.00,,BKN110,0.00,VWS V14.01,2013-03-16 00:22:00,
2013-03-15 17:25:00,51.7,49.8,30.08,SW,227,2.0,2.0,93,0.00,,BKN110,0.00,VWS V14.01,2013-03-16 00:25:00,
2013-03-15 17:26:00,51.7,49.8,30.08,SW,227,2.0,2.0,93,0.00,,BKN110,0.00,VWS V14.01,2013-03-16 00:26:00,
2013-03-15 17:29:00,51.7,49.8,30.08,SW,227,2.0,2.0,93,0.00,,BKN110,0.00,VWS V14.01,2013-03-16 00:29:00,
2013-03-15 17:30:00,51.7,49.8,30.08,SW,227,2.0,2.0,93,0.00,,BKN110,0.00,VWS V14.01,2013-03-16 00:30:00,
2013-03-15 17:31:00,51.7,49.8,30.08,SW,227,2.0,2.0,93,0.00,,BKN110,0.00,VWS V14.01,2013-03-16 00:31:00,
2013-03-15 17:35:00,51.7,49.8,30.08,SW,227,2.0,2.0,93,0.00,,BKN110,0.00,VWS V14.01,2013-03-16 00:35:00,
2013-03-15 17:36:00,51.7,49.8,30.08,SW,227,2.0,2.0,93,0.00,,BKN110,0.00,VWS V14.01,2013-03-16 00:36:00,
2013-03-15 17:37:00,51.7,49.8,30.08,SW,227,2.0,2.0,93,0.00,,BKN110,0.00,VWS V14.01,2013-03-16 00:37:00,
2013-03-15 17:38:00,51.7,49.8,30.08,SW,227,2.0,2.0,93,0.00,,BKN110,0.00,VWS V14.01,2013-03-16 00:38:00,
2013-03-15 17:42:00,51.7,49.8,30.08,SW,227,2.0,2.0,93,0.00,,BKN110,0.00,VWS V14.01,2013-03-16 00:42:00,
2013-03-15 17:43:00,51.7,49.8,30.08,SW,227,2.0,2.0,93,0.00,,BKN110,0.00,VWS V14.01,2013-03-16 00:43:00,
2013-03-15 17:44:00,51.7,49.8,30.08,SW,227,2.0,2.0,93,0.00,,BKN110,0.00,VWS V14.01,2013-03-16 00:44:00,
2013-03-15 17:46:00,51.7,49.8,30.08,SW,227,2.0,2.0,93,0.00,,BKN110,0.00,VWS V14.01,2013-03-16 00:46:00,
2013-03-15 17:48:00,51.7,49.8,30.08,SW,227,2.0,2.0,93,0.00,,BKN110,0.00,VWS V14.01,2013-03-16 00:48:00,
2013-03-15 17:53:00,51.7,49.8,30.08,SW,227,2.0,2.0,93,0.00,,BKN110,0.00,VWS V14.01,2013-03-16 00:53:00,
2013-03-15 17:54:00,51.7,49.8,30.08,SW,227,2.0,2.0,93,0.00,,BKN110,0.00,VWS V14.01,2013-03-16 00:54:00,
2013-03-15 17:55:00,51.7,49.8,30.08,SW,227,2.0,2.0,93,0.00,,BKN110,0.00,VWS V14.01,2013-03-16 00:55:00,
2013-03-15 17:59:00,51.7,49.8,30.08,SW,227,2.0,2.0,93,0.00,,BKN110,0.00,VWS V14.01,2013-03-16 00:59:00,
2013-03-15 18:00:00,51.7,49.8,30.08,SW,227,2.0,2.0,93,0.00,,BKN110,0.00,VWS V14.01,2013-03-16 01:00:00,
2013-03-15 18:01:00,51.7,49.8,30.08,SW,227,2.0,2.0,93,0.00,,BKN100,0.00,VWS V14.01,2013-03-16 01:01:00,
2013-03-15 18:02:00,51.7,49.8,30.08,SW,227,2.0,2.0,93,0.00,,BKN100,0.00,VWS V14.01,2013-03-16 01:02:00,
2013-03-15 18:06:00,51.7,49.8,30.08,SW,227,2.0,2.0,93,0.00,,BKN100,0.00,VWS V14.01,2013-03-16 01:06:00,
2013-03-15 18:07:00,51.7,49.8,30.08,SW,227,2.0,2.0,93,0.00,,BKN100,0.00,VWS V14.01,2013-03-16 01:07:00,
2013-03-15 18:08:00,51.7,49.8,30.08,SW,227,2.0,2.0,93,0.00,,BKN100,0.00,VWS V14.01,2013-03-16 01:08:00,
2013-03-15 18:11:00,51.7,49.8,30.08,SW,227,2.0,2.0,93,0.00,,BKN100,0.00,VWS V14.01,2013-03-16 01:11:00,
2013-03-15 18:13:00,51.7,49.8,30.08,SW,227,2.0,2.0,93,0.00,,BKN100,0.00,VWS V14.01,2013-03-16 01:13:00,
2013-03-15 18:15:00,51.7,49.8,30.08,SW,227,2.0,2.0,93,0.00,,BKN100,0.00,VWS V14.01,2013-03-16 01:15:00,
2013-03-15 18:16:00,51.7,49.8,30.08,SW,227,2.0,2.0,93,0.00,,BKN100,0.00,VWS V14.01,2013-03-16 01:16:00,
2013-03-15 18:21:00,51.7,49.8,30.08,SW,227,2.0,2.0,93,0.00,,BKN100,0.00,VWS V14.01,2013-03-16 01:21:00,
2013-03-15 18:23:00,51.7,49.8,30.08,SW,227,2.0,2.0,93,0.00,,BKN100,0.00,VWS V14.01,2013-03-16 01:23:00,
2013-03-15 18:25:00,51.7,49.8,30.08,SW,227,2.0,2.0,93,0.00,,BKN100,0.00,VWS V14.01,2013-03-16 01:25:00,
2013-03-15 18:26:00,51.7,49.8,30.08,SW,227,2.0,2.0,93,0.00,,BKN100,0.00,VWS V14.01,2013-03-16 01:26:00,
2013-03-15 18:28:00,51.7,49.8,30.08,SW,227,2.0,2.0,93,0.00,,BKN100,0.00,VWS V14.01,2013-03-16 01:28:00,
2013-03-15 18:31:00,51.7,49.8,30.08,SW,227,2.0,2.0,93,0.00,,BKN100,0.00,VWS V14.01,2013-03-16 01:31:00,
2013-03-15 18:33:00,51.7,49.8,30.08,SW,227,2.0,2.0,93,0.00,,BKN100,0.00,VWS V14.01,2013-03-16 01:33:00,
2013-03-15 18:37:00,51.7,49.8,30.08,SW,227,2.0,2.0,93,0.00,,BKN100,0.00,VWS V14.01,2013-03-16 01:37:00,
2013-03-15 18:38:00,51.7,49.8,30.08,SW,227,2.0,2.0,93,0.00,,BKN100,0.00,VWS V14.01,2013-03-16 01:38:00,
2013-03-15 18:39:00,51.7,49.8,30.08,SW,227,2.0,2.0,93,0.00,,BKN100,0.00,VWS V14.01,2013-03-16 01:39:00,
2013-03-15 18:42:00,51.7,49.8,30.08,SW,227,2.0,2.0,93,0.00,,BKN100,0.00,VWS V14.01,2013-03-16 01:42:00,
2013-03-15 18:43:00,51.7,49.8,30.08,SW,227,2.0,2.0,93,0.00,,BKN100,0.00,VWS V14.01,2013-03-16 01:43:00,
2013-03-15 18:44:00,51.7,49.8,30.08,SW,227,2.0,2.0,93,0.00,,BKN100,0.00,VWS V14.01,2013-03-16 01:44:00,
2013-03-15 18:46:00,51.7,49.8,30.08,SW,227,2.0,2.0,93,0.00,,BKN100,0.00,VWS V14.01,2013-03-16 01:46:00,
2013-03-15 18:49:00,51.7,49.8,30.08,SW,227,2.0,2.0,93,0.00,,BKN100,0.00,VWS V14.01,2013-03-16 01:49:00,
2013-03-15 18:51:00,51.7,49.8,30.08,SW,227,2.0,2.0,93,0.00,,BKN100,0.00,VWS V14.01,2013-03-16 01:51:00,
2013-03-15 18:54:00,51.7,49.8,30.08,SW,227,2.0,2.0,93,0.00,,BKN100,0.00,VWS V14.01,2013-03-16 01:54:00,
2013-03-15 18:55:00,51.7,49.8,30.08,SW,227,2.0,2.0,93,0.00,,BKN100,0.00,VWS V14.01,2013-03-16 01:55:00,
2013-03-15 18:57:00,51.7,49.8,30.08,SW,227,2.0,2.0,93,0.00,,BKN100,0.00,VWS V14.01,2013-03-16 01:57:00,
2013-03-15 19:02:00,51.7,49.8,30.09,SW,227,2.0,2.0,93,0.00,,BKN095,0.00,VWS V14.01,2013-03-16 02:02:00,
2013-03-15 19:03:00,51.7,49.8,30.09,SW,227,2.0,2.0,93,0.00,,BKN095,0.00,VWS V14.01,2013-03-16 02:03:00,
2013-03-15 19:04:00,51.7,49.8,30.09,SW,227,2.0,2.0,93,0.00,,BKN095,0.00,VWS V14.01,2013-03-16 02:04:00,
2013-03-15 19:06:00,51.7,49.8,30.09,SW,227,2.0,2.0,93,0.00,,BKN095,0.00,VWS V14.01,2013-03-16 02:06:00,
2013-03-15 19:07:00,51.7,49.8,30.09,SW,227,2.0,2.0,93,0.00,,BKN095,0.00,VWS V14.01,2013-03-16 02:07:00,
2013-03-15 19:11:00,51.7,49.8,30.09,SW,227,2.0,2.0,93,0.00,,BKN095,0.00,VWS V14.01,2013-03-16 02:11:00,
2013-03-15 19:12:00,51.7,49.8,30.09,SW,227,2.0,2.0,93,0.00,,BKN095,0.00,VWS V14.01,2013-03-16 02:12:00,
2013-03-15 19:15:00,51.7,49.8,30.09,SW,227,2.0,2.0,93,0.00,,BKN095,0.00,VWS V14.01,2013-03-16 02:15:00,
2013-03-15 19:18:00,51.7,49.8,30.08,SW,227,2.0,2.0,93,0.00,,BKN095,0.00,VWS V14.01,2013-03-16 02:18:00,
2013-03-15 19:19:00,51.7,49.8,30.08,SW,227,2.0,2.0,93,0.00,,BKN095,0.00,VWS V14.01,2013-03-16 02:19:00,
2013-03-15 19:20:00,51.7,49.8,30.08,SW,227,2.0,2.0,93,0.00,,BKN095,0.00,VWS V14.01,2013-03-16 02:20:00,
2013-03-15 19:22:00,51.7,49.8,30.08,SW,227,2.0,2.0,93,0.00,,BKN095,0.00,VWS V14.01,2013-03-16 02:22:00,
2013-03-15 19:27:00,51.7,49.8,30.08,SW,227,2.0,2.0,93,0.00,,BKN095,0.00,VWS V14.01,2013-03-16 02:27:00,
2013-03-15 19:28:00,51.7,49.8,30.08,SW,227,2.0,2.0,93,0.00,,BKN095,0.00,VWS V14.01,2013-03-16 02:28:00,
2013-03-15 19:30:00,51.7,49.8,30.08,SW,227,2.0,2.0,93,0.00,,BKN095,0.00,VWS V14.01,2013-03-16 02:30:00,
2013-03-15 19:32:00,51.7,49.8,30.08,SW,227,2.0,2.0,93,0.00,,BKN095,0.00,VWS V14.01,2013-03-16 02:32:00,
2013-03-15 19:33:00,51.7,49.8,30.08,SW,227,2.0,2.0,93,0.00,,BKN095,0.00,VWS V14.01,2013-03-16 02:33:00,
2013-03-15 19:34:00,51.7,49.8,30.08,SW,227,2.0,2.0,93,0.00,,BKN095,0.00,VWS V14.01,2013-03-16 02:34:00,
2013-03-15 19:36:00,51.7,49.8,30.08,SW,227,2.0,2.0,93,0.00,,BKN095,0.00,VWS V14.01,2013-03-16 02:36:00,
2013-03-15 19:37:00,51.7,49.8,30.08,SW,227,2.0,2.0,93,0.00,,BKN095,0.00,VWS V14.01,2013-03-16 02:37:00,
2013-03-15 19:38:00,51.7,49.8,30.08,SW,227,2.0,2.0,93,0.00,,BKN095,0.00,VWS V14.01,2013-03-16 02:38:00,
2013-03-15 19:41:00,51.7,49.8,30.08,SW,227,2.0,2.0,93,0.00,,BKN095,0.00,VWS V14.01,2013-03-16 02:41:00,
2013-03-15 19:46:00,51.7,49.8,30.08,SW,227,2.0,2.0,93,0.00,,BKN095,0.00,VWS V14.01,2013-03-16 02:46:00,
2013-03-15 19:48:00,51.7,49.8,30.08,SW,227,2.0,2.0,93,0.00,,BKN095,0.00,VWS V14.01,2013-03-16 02:48:00,
2013-03-15 19:51:00,51.7,49.8,30.08,SW,227,2.0,2.0,93,0.00,,BKN095,0.00,VWS V14.01,2013-03-16 02:51:00,
2013-03-15 19:53:00,51.7,49.8,30.08,SW,227,2.0,2.0,93,0.00,,BKN095,0.00,VWS V14.01,2013-03-16 02:53:00,
2013-03-15 19:54:00,51.7,49.8,30.08,SW,227,2.0,2.0,93,0.00,,BKN095,0.00,VWS V14.01,2013-03-16 02:54:00,
2013-03-15 19:55:00,51.7,49.8,30.08,SW,227,2.0,2.0,93,0.00,,BKN095,0.00,VWS V14.01,2013-03-16 02:55:00,
2013-03-15 19:58:00,51.7,49.8,30.08,SW,227,2.0,2.0,93,0.00,,BKN095,0.00,VWS V14.01,2013-03-16 02:58:00,
2013-03-15 20:00:00,51.7,49.8,30.08,SW,227,2.0,2.0,93,0.00,,OVC090,0.00,VWS V14.01,2013-03-16 03:00:00,
2013-03-15 20:01:00,51.7,49.8,30.08,SW,227,2.0,2.0,93,0.00,,OVC090,0.00,VWS V14.01,2013-03-16 03:01:00,
2013-03-15 20:05:00,51.7,49.8,30.08,SW,227,2.0,2.0,93,0.00,,OVC090,0.00,VWS V14.01,2013-03-16 03:05:00,
2013-03-15 20:06:00,51.7,49.8,30.08,SW,227,2.0,2.0,93,0.00,,OVC090,0.00,VWS V14.01,2013-03-16 03:06:00,
2013-03-15 20:07:00,51.7,49.8,30.08,SW,227,2.0,2.0,93,0.00,,OVC090,0.00,VWS V14.01,2013-03-16 03:07:00,
2013-03-15 20:11:00,51.7,49.8,30.08,SW,227,2.0,2.0,93,0.00,,OVC090,0.00,VWS V14.01,2013-03-16 03:11:00,
2013-03-15 20:13:00,51.7,49.8,30.08,SW,227,2.0,2.0,93,0.00,,OVC090,0.00,VWS V14.01,2013-03-16 03:13:00,
2013-03-15 20:18:00,51.7,49.8,30.08,SW,227,2.0,2.0,93,0.00,,OVC090,0.00,VWS V14.01,2013-03-16 03:18:00,
2013-03-15 20:19:00,51.7,49.8,30.08,SW,227,2.0,2.0,93,0.00,,OVC090,0.00,VWS V14.01,2013-03-16 03:19:00,
2013-03-15 20:21:00,51.7,49.8,30.08,SW,227,2.0,2.0,93,0.00,,OVC090,0.00,VWS V14.01,2013-03-16 03:21:00,
2013-03-15 20:24:00,51.7,49.8,30.08,SW,227,2.0,2.0,93,0.00,,OVC090,0.00,VWS V14.01,2013-03-16 03:24:00,
2013-03-15 20:26:00,51.7,49.8,30.08,SW,227,2.0,2.0,93,0.00,,OVC090,0.00,VWS V14.01,2013-03-16 03:26:00,
2013-03-15 20:27:00,51.7,49.8,30.08,SW,227,2.0,2.0,93,0.00,,OVC090,0.00,VWS V14.01,2013-03-16 03:27:00,
2013-03-15 20:28:00,51.7,49.8,30.08,SW,227,2.0,2.0,93,0.00,,OVC090,0.00,VWS V14.01,2013-03-16 03:28:00,
2013-03-15 20:31:00,51.7,49.8,30.08,SW,227,2.0,2.0,93,0.00,,OVC090,0.00,VWS V14.01,2013-03-16 03:31:00,
2013-03-15 20:36:00,51.7,49.8,30.08,SW,227,2.0,2.0,93,0.00,,OVC090,0.00,VWS V14.01,2013-03-16 03:36:00,
2013-03-15 20:38:00,51.7,49.8,30.08,SW,227,2.0,2.0,93,0.00,,OVC090,0.00,VWS V14.01,2013-03-16 03:38:00,
2013-03-15 20:42:00,51.7,49.8,30.08,SW,227,2.0,2.0,93,0.00,,OVC090,0.00,VWS V14.01,2013-03-16 03:42:00,
2013-03-15 20:45:00,51.7,49.8,30.08,SW,227,2.0,2.0,93,0.00,,OVC090,0.00,VWS V14.01,2013-03-16 03:45:00,
2013-03-15 20:47:00,51.7,49.8,30.08,SW,227,2.0,2.0,93,0.00,,OVC090,0.00,VWS V14.01,2013-03-16 03:47:00,
2013-03-15 20:51:00,51.7,49.8,30.08,SW,227,2.0,2.0,93,0.00,,OVC090,0.00,VWS V14.01,2013-03-16 03:51:00,
2013-03-15 20:52:00,51.7,49.8,30.08,SW,227,2.0,2.0,93,0.00,,OVC090,0.00,VWS V14.01,2013-03-16 03:52:00,
2013-03-15 20:56:00,51.7,49.8,30.08,WSW,239,1.0,2.0,93,0.00,,OVC090,0.00,VWS V14.01,2013-03-16 03:56:00,
2013-03-15 20:59:00,51.7,49.8,30.08,WSW,239,1.0,1.0,93,0.00,,OVC090,0.00,VWS V14.01,2013-03-16 03:59:00,
2013-03-15 21:00:00,51.7,49.8,30.08,WSW,239,1.0,1.0,93,0.00,,OVC100,0.00,VWS V14.01,2013-03-16 04:00:00,
2013-03-15 21:01:00,51.7,49.8,30.08,WSW,239,1.0,1.0,93,0.00,,OVC100,0.00,VWS V14.01,2013-03-16 04:01:00,
2013-03-15 21:03:00,51.7,49.8,30.08,WSW,239,1.0,1.0,93,0.00,,OVC100,0.00,VWS V14.01,2013-03-16 04:03:00,
2013-03-15 21:06:00,50.5,48.6,30.08,SSW,200,0.0,1.0,93,0.00,,OVC100,0.00,VWS V14.01,2013-03-16 04:06:00,
2013-03-15 21:08:00,50.5,48.6,30.08,WSW,241,3.0,3.0,93,0.00,,OVC100,0.00,VWS V14.01,2013-03-16 04:08:00,
2013-03-15 21:12:00,50.5,48.6,30.08,WSW,241,0.0,0.0,93,0.00,,OVC100,0.00,VWS V14.01,2013-03-16 04:12:00,
2013-03-15 21:13:00,50.5,48.6,30.08,WSW,241,0.0,0.0,93,0.00,,OVC100,0.00,VWS V14.01,2013-03-16 04:13:00,
2013-03-15 21:16:00,50.5,48.6,30.07,WSW,241,0.0,0.0,93,0.00,,OVC100,0.00,VWS V14.01,2013-03-16 04:16:00,
2013-03-15 21:17:00,50.5,48.6,30.07,WSW,241,0.0,0.0,93,0.00,,OVC100,0.00,VWS V14.01,2013-03-16 04:17:00,
2013-03-15 21:18:00,50.5,48.6,30.07,WSW,241,0.0,0.0,93,0.00,,OVC100,0.00,VWS V14.01,2013-03-16 04:18:00,
2013-03-15 21:21:00,50.5,48.6,30.07,WSW,241,0.0,0.0,93,0.00,,OVC100,0.00,VWS V14.01,2013-03-16 04:21:00,
2013-03-15 21:24:00,50.5,48.6,30.07,WSW,241,0.0,0.0,93,0.00,,OVC100,0.00,VWS V14.01,2013-03-16 04:24:00,
2013-03-15 21:26:00,50.5,48.6,30.07,WSW,241,0.0,0.0,93,0.00,,OVC100,0.00,VWS V14.01,2013-03-16 04:26:00,
2013-03-15 21:29:00,50.5,48.6,30.07,WSW,241,0.0,0.0,93,0.00,,OVC100,0.00,VWS V14.01,2013-03-16 04:29:00,
2013-03-15 21:30:00,50.5,48.6,30.08,WSW,241,0.0,0.0,93,0.00,,OVC100,0.00,VWS V14.01,2013-03-16 04:30:00,
2013-03-15 21:35:00,50.5,48.6,30.08,WSW,241,0.0,0.0,93,0.00,,OVC100,0.00,VWS V14.01,2013-03-16 04:35:00,
2013-03-15 21:36:00,50.5,48.6,30.08,WSW,241,0.0,0.0,93,0.00,,OVC100,0.00,VWS V14.01,2013-03-16 04:36:00,
2013-03-15 21:40:00,50.2,48.3,30.08,SW,224,2.0,2.0,93,0.00,,OVC100,0.00,VWS V14.01,2013-03-16 04:40:00,
2013-03-15 21:42:00,50.2,48.3,30.08,SW,224,2.0,2.0,93,0.00,,OVC100,0.00,VWS V14.01,2013-03-16 04:42:00,
2013-03-15 21:45:00,50.2,48.3,30.08,SW,224,2.0,2.0,93,0.00,,OVC100,0.00,VWS V14.01,2013-03-16 04:45:00,
2013-03-15 21:46:00,50.2,48.3,30.08,SW,224,3.0,3.0,93,0.00,,OVC100,0.00,VWS V14.01,2013-03-16 04:46:00,
2013-03-15 21:47:00,50.2,48.3,30.08,SW,224,3.0,3.0,93,0.00,,OVC100,0.00,VWS V14.01,2013-03-16 04:47:00,
2013-03-15 21:49:00,50.2,48.3,30.08,SW,224,0.0,3.0,93,0.00,,OVC100,0.00,VWS V14.01,2013-03-16 04:49:00,
2013-03-15 21:51:00,50.2,48.3,30.08,SW,224,0.0,0.0,93,0.00,,OVC100,0.00,VWS V14.01,2013-03-16 04:51:00,
2013-03-15 21:53:00,50.2,48.3,30.08,SW,224,0.0,0.0,93,0.00,,OVC100,0.00,VWS V14.01,2013-03-16 04:53:00,
2013-03-15 21:54:00,50.2,48.3,30.08,SW,224,0.0,0.0,93,0.00,,OVC100,0.00,VWS V14.01,2013-03-16 04:54:00,
2013-03-15 21:59:00,50.2,48.3,30.08,SW,224,0.0,0.0,93,0.00,,OVC100,0.00,VWS V14.01,2013-03-16 04:59:00,
2013-03-15 22:00:00,50.2,48.3,30.08,SW,224,0.0,0.0,93,0.00,,OVC100,0.00,VWS V14.01,2013-03-16 05:00:00,
2013-03-15 22:01:00,49.9,48.0,30.08,WSW,237,1.0,1.0,93,0.00,,OVC090,0.00,VWS V14.01,2013-03-16 05:01:00,
2013-03-15 22:06:00,49.9,48.0,30.08,WSW,237,1.0,1.0,93,0.00,,OVC090,0.00,VWS V14.01,2013-03-16 05:06:00,
2013-03-15 22:08:00,49.9,48.0,30.08,WSW,239,3.0,3.0,93,0.00,,OVC090,0.00,VWS V14.01,2013-03-16 05:08:00,
2013-03-15 22:09:00,49.9,48.0,30.08,WSW,239,3.0,3.0,93,0.00,,OVC090,0.00,VWS V14.01,2013-03-16 05:09:00,
2013-03-15 22:13:00,49.9,48.0,30.08,WSW,239,0.0,0.0,93,0.00,,OVC090,0.00,VWS V14.01,2013-03-16 05:13:00,
2013-03-15 22:14:00,49.9,48.0,30.08,WSW,239,0.0,0.0,93,0.00,,OVC090,0.00,VWS V14.01,2013-03-16 05:14:00,
2013-03-15 22:16:00,49.9,48.0,30.08,WSW,239,0.0,0.0,93,0.00,,OVC090,0.00,VWS V14.01,2013-03-16 05:16:00,
2013-03-15 22:20:00,49.9,48.0,30.08,SW,217,2.0,6.0,93,0.00,,OVC090,0.00,VWS V14.01,2013-03-16 05:20:00,
2013-03-15 22:21:00,49.9,48.0,30.08,SW,217,2.0,6.0,93,0.00,,OVC090,0.00,VWS V14.01,2013-03-16 05:21:00,
2013-03-15 22:23:00,49.9,48.0,30.08,SSW,209,3.0,3.0,93,0.00,,OVC090,0.00,VWS V14.01,2013-03-16 05:23:00,
2013-03-15 22:25:00,49.9,48.0,30.08,WSW,251,2.0,7.0,93,0.00,,OVC090,0.00,VWS V14.01,2013-03-16 05:25:00,
2013-03-15 22:26:00,49.9,48.0,30.08,WSW,251,2.0,7.0,93,0.00,,OVC090,0.00,VWS V14.01,2013-03-16 05:26:00,
2013-03-15 22:28:00,49.9,48.0,30.08,West,263,6.0,6.0,93,0.00,,OVC090,0.00,VWS V14.01,2013-03-16 05:28:00,
2013-03-15 22:31:00,49.9,48.0,30.07,SSW,212,3.0,6.0,93,0.00,,OVC090,0.00,VWS V14.01,2013-03-16 05:31:00,
2013-03-15 22:32:00,49.9,48.0,30.07,SSW,212,3.0,3.0,93,0.00,,OVC090,0.00,VWS V14.01,2013-03-16 05:32:00,
2013-03-15 22:33:00,49.9,48.0,30.07,SSW,212,3.0,3.0,93,0.00,,OVC090,0.00,VWS V14.01,2013-03-16 05:33:00,
2013-03-15 22:37:00,49.9,48.0,30.07,SSW,212,3.0,3.0,93,0.00,,OVC090,0.00,VWS V14.01,2013-03-16 05:37:00,
2013-03-15 22:38:00,49.9,48.0,30.07,SSW,212,3.0,3.0,93,0.00,,OVC090,0.00,VWS V14.01,2013-03-16 05:38:00,
2013-03-15 22:40:00,49.9,48.0,30.07,SSW,212,3.0,3.0,93,0.00,,OVC090,0.00,VWS V14.01,2013-03-16 05:40:00,
2013-03-15 22:43:00,49.9,48.0,30.07,SSW,212,3.0,3.0,93,0.00,,OVC090,0.00,VWS V14.01,2013-03-16 05:43:00,
2013-03-15 22:46:00,49.9,48.0,30.07,SSW,212,3.0,3.0,93,0.00,,OVC090,0.00,VWS V14.01,2013-03-16 05:46:00,
2013-03-15 22:48:00,49.9,48.0,30.07,SSW,212,3.0,3.0,93,0.00,,OVC090,0.00,VWS V14.01,2013-03-16 05:48:00,
2013-03-15 22:49:00,49.9,48.0,30.07,SSW,212,3.0,3.0,93,0.00,,OVC090,0.00,VWS V14.01,2013-03-16 05:49:00,
2013-03-15 22:53:00,49.9,48.0,30.07,SSW,212,3.0,3.0,93,0.00,,OVC090,0.00,VWS V14.01,2013-03-16 05:53:00,
2013-03-15 22:54:00,49.9,48.0,30.07,SSW,212,3.0,3.0,93,0.00,,OVC090,0.00,VWS V14.01,2013-03-16 05:54:00,
2013-03-15 22:56:00,49.9,48.0,30.07,SSW,212,3.0,3.0,93,0.00,,OVC090,0.00,VWS V14.01,2013-03-16 05:56:00,
2013-03-15 22:59:00,49.9,48.0,30.07,SSW,212,3.0,3.0,93,0.00,,OVC090,0.00,VWS V14.01,2013-03-16 05:59:00,
2013-03-15 23:01:00,49.9,48.0,30.07,SSW,212,3.0,3.0,93,0.00,,OVC100,0.00,VWS V14.01,2013-03-16 06:01:00,
2013-03-15 23:03:00,49.9,48.0,30.07,SSW,212,3.0,3.0,93,0.00,,OVC100,0.00,VWS V14.01,2013-03-16 06:03:00,
2013-03-15 23:06:00,49.9,48.0,30.07,SSW,212,3.0,3.0,93,0.00,,OVC100,0.00,VWS V14.01,2013-03-16 06:06:00,
2013-03-15 23:08:00,49.9,48.0,30.07,SSW,212,3.0,3.0,93,0.00,,OVC100,0.00,VWS V14.01,2013-03-16 06:08:00,
2013-03-15 23:09:00,49.9,48.0,30.07,SSW,212,3.0,3.0,93,0.00,,OVC100,0.00,VWS V14.01,2013-03-16 06:09:00,
2013-03-15 23:13:00,49.9,48.0,30.07,SSW,212,3.0,3.0,93,0.00,,OVC100,0.00,VWS V14.01,2013-03-16 06:13:00,
2013-03-15 23:14:00,49.9,48.0,30.07,SSW,212,3.0,3.0,93,0.00,,OVC100,0.00,VWS V14.01,2013-03-16 06:14:00,
2013-03-15 23:16:00,49.9,48.0,30.06,SSW,212,3.0,3.0,93,0.00,,OVC100,0.00,VWS V14.01,2013-03-16 06:16:00,
2013-03-15 23:19:00,49.9,48.0,30.06,SSW,212,3.0,3.0,93,0.00,,OVC100,0.00,VWS V14.01,2013-03-16 06:19:00,
2013-03-15 23:21:00,49.9,48.0,30.06,SSW,212,3.0,3.0,93,0.00,,OVC100,0.00,VWS V14.01,2013-03-16 06:21:00,
2013-03-15 23:25:00,49.9,48.0,30.06,SSW,212,3.0,3.0,93,0.00,,OVC100,0.00,VWS V14.01,2013-03-16 06:25:00,
2013-03-15 23:27:00,49.9,48.0,30.06,SSW,212,3.0,3.0,93,0.00,,OVC100,0.00,VWS V14.01,2013-03-16 06:27:00,
2013-03-15 23:30:00,49.9,48.0,30.06,SSW,212,3.0,3.0,93,0.00,,OVC100,0.00,VWS V14.01,2013-03-16 06:30:00,
2013-03-15 23:33:00,49.9,48.0,30.06,SSW,212,3.0,3.0,93,0.00,,OVC100,0.00,VWS V14.01,2013-03-16 06:33:00,
2013-03-15 23:34:00,49.9,48.0,30.06,SSW,212,3.0,3.0,93,0.00,,OVC100,0.00,VWS V14.01,2013-03-16 06:34:00,
2013-03-15 23:36:00,49.9,48.0,30.06,SSW,212,3.0,3.0,93,0.00,,OVC100,0.00,VWS V14.01,2013-03-16 06:36:00,
2013-03-15 23:41:00,49.9,48.0,30.06,SSW,212,3.0,3.0,93,0.00,,OVC100,0.00,VWS V14.01,2013-03-16 06:41:00,
2013-03-15 23:42:00,49.9,48.0,30.06,SSW,212,3.0,3.0,93,0.00,,OVC100,0.00,VWS V14.01,2013-03-16 06:42:00,
2013-03-15 23:43:00,49.9,48.0,30.06,SSW,212,3.0,3.0,93,0.00,,OVC100,0.00,VWS V14.01,2013-03-16 06:43:00,
2013-03-15 23:46:00,49.9,48.0,30.06,SSW,212,3.0,3.0,93,0.00,,OVC100,0.00,VWS V14.01,2013-03-16 06:46:00,
2013-03-15 23:49:00,49.9,48.0,30.06,ENE,75,0.0,3.0,93,0.00,,OVC100,0.00,VWS V14.01,2013-03-16 06:49:00,
2013-03-15 23:52:00,49.9,48.0,30.06,ENE,75,0.0,0.0,93,0.00,,OVC100,0.00,VWS V14.01,2013-03-16 06:52:00,
2013-03-15 23:56:00,49.9,48.0,30.06,ENE,75,0.0,0.0,93,0.00,,OVC100,0.00,VWS V14.01,2013-03-16 06:56:00,
2013-03-15 23:59:00,49.9,48.0,30.06,ENE,75,0.0,0.0,93,0.00,,OVC100,0.00,VWS V14.01,2013-03-16 06:59:00,